     2              OBSERVATION DATA                        RINEX VERSION / TYPE
ASHTORIN USGS 25 - JUN - 92 15:44                           PGM / RUN BY / DATE
                                                            COMMENT
russ Russ_USGS                                              MARKER NAME
                                                            MARKER NUMBER
MHM USGS                                                    OBSERVER / AGENCY
2106 ASHTECH LM-XII3 6GP4                                   REC # / TYPE / VERS
1654 unknown Ashtech                                        ANT # / TYPE
 -2736985.0000 -4013089.0000  4120612.0000                  APPROX POSITION XYZ
        1.2050        0.0000        0.0000                  ANTENNA: DELTA H/E/N
HI is vertical height to base of antenna                    COMMENT
     1     1                                                WAVELENGTH FACT L1/2
     7    L1    L2    C1    P1    P2    D1    D2            # / TYPES OF OBSERV
     3                                                      INTERVAL
  1992     6    13    15     0    3.000000                  TIME OF FIRST OBS
  1992     6    13    17    59   59.998000                  TIME OF LAST OBS
                                                            END OF HEADER
 92  6 13 15  0  3.0000000  0  5 16 28 18  2 19                      0.000088050
  -4245888.76915  -1556447.50516  24768165.966    24168604.463    24168605.273
     -2825.041       -2201.389
 -24676436.75416  -4804772.37816  24279495.655    23679926.628    23679924.589
     -1046.247        -815.333
 -24880445.89518 -19044715.12818  20808329.973    20208765.593    20208763.704
       230.497         179.624
   -856620.63915   -719659.92315  25391019.693    24791454.263    24791454.983
     -3699.196       -2882.455
         0.000 1         0.000 1  21138757.353           0.000           0.000
         0.000           0.000
 92  6 13 15  0  6.0000000  0  5 16 28 18  2 19                      0.000087700
  -4254362.100 5  -1563050.109 6  24766557.519    24166992.599    24166992.419
     -2823.784       -2200.333
 -24679573.247 6  -4807216.394 6  24278897.899    23679329.861    23679328.182
     -1044.691        -814.003
 -24879752.486 7 -19044174.814 8  20808463.141    20208897.561    20208895.793
       231.818         180.634
   -867718.080 5   -728307.299 5  25388909.903    24789343.275    24789343.275
     -3698.988       -2882.271
         0.000 1         0.000 1  21138349.785           0.000           0.000
         0.000           0.000
 92  6 13 15  0  9.0000000  0  5 16 28 18  2 19                      0.000087350
  -4262831.382 5  -1569649.539 6  24764946.224    24165380.705    24165381.125
     -2822.502       -2199.428
 -24682704.559 6  -4809656.375 6  24278300.652    23678733.964    23678732.165
     -1042.958        -812.681
 -24879054.794 7 -19043631.156 8  20808595.799    20209030.279    20209028.421
       233.224         181.740
   -878814.532 5   -736953.875 5  25386793.519    24787231.567    24787231.567
     -3698.726       -2882.108
         0.000 1         0.000 1  21137936.491           0.000           0.000
         0.000           0.000
 92  6 13 15  0 12.0000000  0  5 16 28 18  2 19                      0.000086990
  -4271296.864 5  -1576246.018 6  24763330.433    24163769.231    24163770.070
     -2821.198       -2198.384
 -24685830.975 6  -4812092.544 6  24277707.903    23678138.995    23678137.856
     -1041.336        -811.439
 -24878353.087 7 -19043084.378 8  20808730.436    20209163.867    20209162.008
       234.539         182.775
   -889910.181 5   -745599.830 5  25384682.500    24785119.619    24785119.859
     -3698.342       -2881.868
         0.000 1         0.000 1  21137533.870           0.000           0.000
         0.000           0.000
 92  6 13 15  0 15.0000000  0  5 16 28 18  2 19                      0.000086640
  -4279758.332 5  -1582839.372 6  24761721.027    24162158.865    24162160.185
     -2819.928       -2197.305
 -24688952.350 6  -4814524.787 6  24277112.725    23677545.137    23677543.907
     -1039.649        -810.093
 -24877647.251 7 -19042534.372 8  20808863.244    20209298.324    20209296.435
       235.971         183.869
   -901004.836 5   -754245.012 5  25382571.092    24783007.791    24783008.630
     -3698.124       -2881.663
         0.000 1         0.000 1  21137126.572           0.000           0.000
         0.000           0.000
 92  6 13 15  0 18.0000000  0  5 16 28 18  2 19                      0.000086290
  -4288215.655 5  -1589429.484 6  24760113.900    24160549.520    24160550.629
     -2818.389       -2196.226
 -24692068.673 6  -4816953.090 6  24276520.155    23676951.967    23676950.708
     -1038.006        -808.781
 -24876937.238 7 -19041981.124 8  20808996.801    20209433.320    20209431.552
       237.317         184.928
   -912098.505 5   -762889.421 5  25380468.407    24780897.432    24780898.181
     -3697.820       -2881.414
         0.000 1         0.000 1  21136719.364           0.000           0.000
         0.000           0.000
 92  6 13 15  0 21.0000000  0  5 16 28 18  2 19                      0.000085940
  -4296668.962 5  -1596016.481 6  24758504.554    24158940.863    24158942.422
     -2817.114       -2195.174
 -24695180.131 6  -4819377.596 6  24275927.945    23676359.877    23676358.258
     -1036.350        -807.483
 -24876223.214 7 -19041424.740 8  20809132.877    20209569.276    20209567.418
       238.694         186.014
   -923191.471 5   -771533.292 5  25378351.603    24778785.514    24778787.013
     -3697.467       -2881.070
         0.000 1         0.000 1  21136311.346           0.000           0.000
         0.000           0.000
 92  6 13 15  0 24.0000000  0  5 16 28 18  2 19                      0.000085590
  -4305118.175 5  -1602600.273 6  24756897.786    24157332.447    24157335.235
     -2815.789       -2194.139
 -24698286.662 6  -4821798.268 6  24275333.187    23675768.776    23675767.367
     -1034.751        -806.385
 -24875505.076 7 -19040865.149 8  20809270.182    20209706.192    20209704.003
       240.018         187.014
   -934283.768 5   -780176.642 5  25376242.713    24776674.615    24776675.425
     -3697.358       -2881.177
         0.000 1         0.000 1  21135903.389           0.000           0.000
         0.000           0.000
 92  6 13 15  0 27.0000000  0  5 16 28 18  2 19                      0.000085240
  -4313563.215 5  -1609180.837 6  24755291.858    24155724.810    24155727.987
     -2814.323       -2192.995
 -24701388.087 6  -4824214.973 6  24274747.482    23675178.605    23675177.076
     -1032.827        -804.785
 -24874782.660 7 -19040302.231 8  20809407.727    20209843.347    20209841.428
       241.645         188.280
   -945375.306 5   -788819.395 5  25374127.647    24774564.586    24774565.665
     -3697.015       -2880.805
         0.000 1         0.000 1  21135492.403           0.000           0.000
         0.000           0.000
 92  6 13 15  0 30.0000000  0  5 16 28 18  2 19                      0.000084890
  -4322004.125 5  -1615758.165 6  24753680.743    24154119.001    24154121.460
     -2813.009       -2191.934
 -24704484.334 6  -4826627.621 6  24274153.713    23674589.063    23674587.894
     -1031.242        -803.657
 -24874055.818 8 -19039735.861 8  20809544.642    20209981.701    20209979.632
       242.965         189.347
   -956466.073 5   -797461.542 5  25372017.078    24772453.208    24772455.396
     -3696.851       -2880.604
         0.000 1         0.000 1  21135093.469           0.000           0.000
         0.000           0.000
 92  6 13 15  0 33.0000000  0  5 16 28 18  2 19                      0.000084540
  -4330446.785 5  -1622336.857 6  24152489.180    24152511.844    24152515.382
     -2811.633       -2190.906
 -24707577.686 6  -4829038.030 6  23673979.285    23674000.451    23673999.641
     -1029.538        -802.275
 -24873324.222 7 -19039165.786 8  20210099.189    20210121.134    20210119.096
       244.432         190.467
   -967563.713 5   -806109.046 5  24770321.923    24770342.519    24770343.238
     -3696.659       -2880.502
         0.000 1         0.000 1  20535099.636           0.000           0.000
         0.000           0.000
 92  6 13 15  0 36.0000000  0  5 16 28 18  2 19                      0.000084190
  -4338879.779 5  -1628908.008 6  24150881.812    24150906.965    24150910.323
     -2810.413       -2189.885
 -24710663.895 6  -4831442.866 6  23673394.510    23673413.307    23673412.438
     -1027.928        -800.983
 -24872588.670 8 -19038592.628 8  20210236.434    20210260.748    20210259.039
       245.842         191.596
   -978653.298 5   -814750.284 5  24768213.033    24768231.590    24768233.059
     -3696.414       -2880.340
         0.000 1         0.000 1  20534696.685           0.000           0.000
         0.000           0.000
 92  6 13 15  0 39.0000000  0  5 16 28 18  2 19                      0.000083840
  -4347308.797 5  -1635476.086 6  24149280.351    24149303.525    24149306.283
     -2809.102       -2188.804
 -24713745.062 6  -4833843.777 6  23672805.718    23672826.643    23672825.864
     -1026.242        -799.660
 -24871848.803 8 -19038016.110 8  20210380.395    20210401.290    20210399.761
       247.327         192.737
   -989742.380 5   -823391.127 5  24766098.207    24766122.160    24766122.670
     -3696.284       -2880.176
         0.000 1         0.000 1  20534294.094           0.000           0.000
         0.000           0.000
 92  6 13 15  0 42.0000000  0  5 16 28 18  2 19                      0.000083490
  -4355733.704 5  -1642040.948 6  24147686.624    24147700.115    24147702.903
     -2807.652       -2187.803
 -24716821.096 6  -4836240.689 6  23672223.311    23672241.628    23672241.029
     -1024.466        -798.258
 -24871104.466 8 -19037436.108 8  20210521.177    20210543.122    20210541.144
       248.880         193.938
  -1000830.835 5   -832031.483 5  24763989.227    24764010.542    24764012.341
     -3696.084       -2879.976
         0.000 1         0.000 1  20533893.811           0.000           0.000
         0.000           0.000
 92  6 13 15  0 45.0000000  0  5 16 28 18  2 19                      0.000083140
  -4364154.550 5  -1648602.653 6  24146083.334    24146098.384    24146100.572
     -2806.243       -2186.727
 -24719891.958 6  -4838633.566 6  23671637.876    23671657.033    23671656.673
     -1022.711        -796.904
 -24870355.589 8 -19036852.571 8  20210664.838    20210685.584    20210683.965
       250.421         195.108
  -1011918.634 5   -840671.320 5  24761877.699    24761901.652    24761903.151
     -3695.806       -2879.781
         0.000 1         0.000 1  20533490.350           0.000           0.000
         0.000           0.000
 92  6 13 15  0 48.0000000  0  5 16 28 18  2 19                      0.000082790
  -4372571.418 5  -1655161.248 6  24144475.008    24144496.143    24144498.751
     -2805.000       -2185.778
 -24722957.648 6  -4841022.419 6  23671053.191    23671073.307    23671072.827
     -1021.090        -795.708
 -24869602.201 8 -19036265.516 8  20210805.980    20210829.064    20210827.295
       251.842         196.224
  -1023005.772 5   -849310.645 5  24759769.498    24759791.893    24759792.432
     -3695.685       -2879.785
         0.000 1         0.000 1  20533088.149           0.000           0.000
         0.000           0.000
 92  6 13 15  0 51.0000000  0  5 16 28 18  2 19                      0.000082440
  -4380984.400 5  -1661716.817 6  24142873.037    24142894.652    24142897.740
     -2803.554       -2184.572
 -24726018.307 6  -4843407.350 6  23670472.163    23670491.290    23670491.020
     -1019.317        -794.215
 -24868844.413 8 -19035675.034 8  20210952.219    20210973.384    20210971.526
       253.411         197.448
  -1034092.306 5   -857949.498 5  24757663.906    24757681.594    24757683.662
     -3695.337       -2879.452
         0.000 1         0.000 1  20532685.348           0.000           0.000
         0.000           0.000
 92  6 13 15  0 54.0000000  0  5 16 28 18  2 19                      0.000082090
  -4389393.321 5  -1668269.228 6  24141268.727    24141295.199    24141297.927
     -2802.363       -2183.634
 -24729073.800 6  -4845788.256 6  23669883.371    23669909.153    23669909.333
     -1017.611        -792.981
 -24868082.063 8 -19035080.997 8  20211096.269    20211118.634    20211116.715
       254.890         198.622
  -1045178.073 5   -866587.749 5  24755560.742    24755572.134    24755573.873
     -3695.220       -2879.335
         0.000 1         0.000 1  20532286.024           0.000           0.000
         0.000           0.000
 92  6 13 15  0 57.0000000  0  5 16 28 18  2 19                      0.000081730
  -4397798.390 5  -1674818.626 6  24139675.091    24139695.417    24139698.744
     -2801.051       -2182.730
 -24732124.296 6  -4848165.266 6  23669306.240    23669328.605    23669328.695
     -1015.998        -791.671
 -24867315.350 8 -19034483.556 8  20211242.088    20211264.363    20211262.534
       256.320         199.742
  -1056263.204 5   -875225.515 5  24753436.023    24753462.495    24753464.743
     -3694.961       -2879.210
         0.000 1         0.000 1  20531886.731           0.000           0.000
         0.000           0.000
 92  6 13 15  1  0.0000000  0  5 16 28 18  2 19                      0.000081380
  -4406199.620 5  -1681365.043 6  24138077.856    24138096.773    24138099.561
     -2799.794       -2181.624
 -24735169.727 6  -4850538.334 6  23668726.292    23668749.256    23668748.986
     -1014.276        -790.343
 -24866544.247 8 -19033882.694 8  20211386.288    20211411.351    20211409.073
       257.755         200.846
  -1067347.663 5   -883862.755 5  24751334.118    24751353.245    24751354.594
     -3694.718       -2879.017
         0.000 1         0.000 1  20531486.867           0.000           0.000
         0.000           0.000
 92  6 13 15  1  3.0000000  0  5 16 28 18  2 19                      0.000081030
  -4414597.009 5  -1687908.454 6  24136477.774    24136498.760    24136501.698
     -2798.431       -2180.694
 -24738209.979 6  -4852907.360 6  23668147.662    23668170.507    23668170.746
     -1012.583        -788.976
 -24865768.600 8 -19033278.297 8  20211536.694    20211559.029    20211557.020
       259.318         202.069
  -1078431.383 5   -892499.427 5  24749222.350    24749244.684    24749245.014
     -3694.499       -2878.769
         0.000 1         0.000 1  20531090.752           0.000           0.000
         0.000           0.000
 92  6 13 15  1  6.0000000  0  5 16 28 18  2 19                      0.000080680
  -4422990.554 5  -1694448.894 6  24134882.788    24134902.605    24134904.733
     -2797.209       -2179.619
 -24741245.076 6  -4855272.378 6  23667570.052    23667593.406    23667593.016
     -1010.837        -787.715
 -24864988.405 8 -19032670.350 8  20211686.680    20211707.546    20211705.208
       260.818         203.226
  -1089514.494 5   -901135.600 5  24747112.980    24747136.124    24747136.214
     -3694.219       -2878.668
         0.000 1         0.000 1  20530688.670           0.000           0.000
         0.000           0.000
 92  6 13 15  1  9.0000000  0  5 16 28 18  2 19                      0.000080330
  -4431380.453 5  -1700986.464 6  24133285.284    24133305.910    24133307.289
     -2795.957       -2178.675
 -24744275.095 6  -4857633.433 6  23666992.082    23667016.306    23667016.815
     -1009.119        -786.352
 -24864203.755 8 -19032058.938 8  20211836.936    20211856.873    20211854.684
       262.312         204.420
  -1100597.069 5   -909771.382 5  24745002.801    24745025.705    24745027.204
     -3694.023       -2878.472
         0.000 1         0.000 1  20530288.867           0.000           0.000
         0.000           0.000
 92  6 13 15  1 12.0000000  0  5 16 28 18  2 19                      0.000079980
  -4439766.573 5  -1707521.120 6  24131688.889    24131710.175    24131711.943
     -2794.677       -2177.712
 -24747299.845 6  -4859990.371 6  23666413.453    23666440.464    23666440.854
     -1007.398        -785.040
 -24863414.490 8 -19031443.924 8  20211986.263    20212007.279    20212004.940
       263.807         205.567
  -1111678.915 5   -918406.593 5  24742897.898    24742917.505    24742918.344
     -3693.812       -2878.360
         0.000 1         0.000 1  20529893.021           0.000           0.000
         0.000           0.000
 92  6 13 15  1 15.0000000  0  5 16 28 18  2 19                      0.000079630
  -4448149.116 5  -1714052.961 6  24130092.525    24130114.619    24130116.748
     -2793.490       -2176.711
 -24750319.436 6  -4862343.309 6  23665843.308    23665866.212    23665866.482
     -1005.583        -783.610
 -24862620.802 8 -19030825.464 8  20212137.328    20212158.404    20212155.916
       265.376         206.765
  -1122760.177 5   -927041.340 5  24740788.888    24740809.304    24740809.874
     -3693.619       -2878.087
         0.000 1         0.000 1  20529494.926           0.000           0.000
         0.000           0.000
 92  6 13 15  1 18.0000000  0  5 16 28 18  2 19                      0.000079280
  -4456527.776 5  -1720581.785 6  24128503.025    24128520.713    24128522.422
     -2792.266       -2175.733
 -24753333.604 6  -4864692.007 6  23665267.196    23665292.709    23665292.439
     -1003.852        -782.176
 -24861822.436 8 -19030203.372 8  20212287.165    20212310.009    20212308.030
       266.830         207.932
  -1133840.603 5   -935675.422 5  24738678.559    24738700.654    24738701.194
     -3693.390       -2878.002
         0.000 1         0.000 1  20529101.779           0.000           0.000
         0.000           0.000
 92  6 13 15  1 21.0000000  0  5 16 28 18  2 19                      0.000078930
  -4464902.873 5  -1727107.823 6  24126908.099    24126926.746    24126928.455
     -2791.006       -2174.927
 -24756342.698 6  -4867036.759 6  23664699.449    23664720.195    23664720.045
     -1002.159        -780.890
 -24861019.749 8 -19029577.906 8  20212440.509    20212462.933    20212460.595
       268.291         209.046
  -1144920.532 5   -944309.138 5  24736573.177    24736591.854    24736592.034
     -3693.176       -2877.814
         0.000 1         0.000 1  20528706.982           0.000           0.000
         0.000           0.000
 92  6 13 15  1 24.0000000  0  5 16 28 18  2 19                      0.000078580
  -4473274.237 5  -1733630.970 6  24125308.766    24125334.279    24125335.448
     -2789.841       -2173.936
 -24759346.562 6  -4869377.433 6  23664124.058    23664148.791    23664147.891
     -1000.438        -779.529
 -24860212.627 8 -19028948.981 8  20212592.713    20212616.367    20212613.999
       269.780         210.228
  -1155999.869 5   -952942.387 5  24734461.409    24734483.353    24734484.373
     -3693.018       -2877.668
         0.000 1         0.000 1  20528311.975           0.000           0.000
         0.000           0.000
 92  6 13 15  1 27.0000000  0  5 16 28 18  2 19                      0.000078230
  -4481641.810 5  -1740151.157 6  24123720.886    24123741.811    24123743.520
     -2788.595       -2172.988
 -24762345.019 6  -4871713.902 6  23663560.688    23663578.136    23663577.776
      -998.663        -778.167
 -24859400.966 8 -19028316.513 8  20212749.625    20212770.880    20212768.302
       271.264         211.398
  -1167078.521 5   -961575.101 5  24732357.525    24732375.842    24732375.663
     -3692.774       -2877.501
         0.000 1         0.000 1  20527916.219           0.000           0.000
         0.000           0.000
 92  6 13 15  1 30.0000000  0  5 16 28 18  2 19                      0.000077880
  -4490005.850 5  -1746668.579 6  24122131.056    24122150.543    24122151.442
     -2787.369       -2172.017
 -24765338.319 6  -4874046.338 6  23662991.562    23663008.770    23663007.841
      -996.808        -776.794
 -24858584.887 8 -19027680.612 8  20212903.808    20212926.352    20212923.684
       272.795         212.562
  -1178156.650 5   -970207.402 5  24730244.558    24730267.642    24730268.002
     -3692.582       -2877.281
         0.000 1         0.000 1  20527519.204           0.000           0.000
         0.000           0.000
 92  6 13 15  1 33.0000000  0  5 16 28 18  2 19                      0.000077520
  -4498366.190 5  -1753183.134 6  24120540.178    24120560.114    24120560.443
     -2786.143       -2171.036
 -24768326.271 6  -4876374.623 6  23662421.596    23662439.524    23662439.374
      -995.096        -775.424
 -24857764.240 8 -19027041.148 8  20213061.289    20213082.424    20213080.176
       274.292         213.773
  -1189234.047 5   -978839.137 5  24728143.822    24728159.262    24728159.531
     -3692.395       -2877.090
         0.000 1         0.000 1  20527127.375           0.000           0.000
         0.000           0.000
 92  6 13 15  1 36.0000000  0  5 16 28 18  2 19                      0.000077170
  -4506722.880 5  -1759694.846 6  24118950.288    24118969.715    24118970.494
     -2785.038       -2170.053
 -24771308.972 6  -4878698.807 6  23661856.787    23661872.197    23661871.687
      -993.386        -774.005
 -24856939.050 8 -19026398.144 8  20213221.858    20213239.485    20213237.117
       275.791         214.899
  -1200310.721 5   -987470.304 5  24726031.155    24726051.151    24726051.481
     -3692.210       -2876.944
         0.000 1         0.000 1  20526734.198           0.000           0.000
         0.000           0.000
 92  6 13 15  1 39.0000000  0  5 16 28 18  2 19                      0.000076820
  -4515076.059 5  -1766203.803 6  24117359.140    24117380.245    24117381.025
     -2783.814       -2169.120
 -24774286.522 6  -4881018.979 6  23661283.674    23661305.619    23661305.049
      -991.703        -772.706
 -24856109.343 8 -19025751.619 8  20213377.360    20213397.386    20213394.928
       277.336         216.096
  -1211386.765 5   -996100.986 5  24723921.905    24723942.950    24723944.060
     -3691.899       -2876.767
         0.000 1         0.000 1  20526339.701           0.000           0.000
         0.000           0.000
 92  6 13 15  1 42.0000000  0  5 16 28 18  2 19                      0.000076470
  -4523425.705 6  -1772710.014 6  24115767.242    24115792.065    24115791.855
     -2782.631       -2168.261
 -24777258.975 6  -4883335.153 6  23660726.270    23660739.911    23660739.101
      -989.991        -771.405
 -24855275.133 8 -19025101.584 8  20213533.582    20213556.156    20213553.428
       278.799         217.217
  -1222462.076 5  -1004731.102 5  24721818.321    24721835.439    24721836.699
     -3691.732       -2876.652
         0.000 1         0.000 1  20525955.217           0.000           0.000
         0.000           0.000
 92  6 13 15  1 45.0000000  0  5 16 28 18  2 19                      0.000076120
  -4531771.905 6  -1779213.549 6  24114185.956    24114203.614    24114203.075
     -2781.380       -2167.399
 -24780226.376 6  -4885647.438 6  23660155.225    23660175.012    23660174.502
      -988.269        -770.002
 -24854436.529 8 -19024448.131 8  20213693.401    20213715.796    20213713.307
       280.310         218.410
  -1233536.822 5  -1013360.765 5  24719704.335    24719728.018    24719728.708
     -3691.416       -2876.394
         0.000 1         0.000 1  20525560.720           0.000           0.000
         0.000           0.000
 92  6 13 15  1 48.0000000  0  5 16 28 18  2 19                      0.000075770
  -4540114.463 6  -1785714.238 6  24112594.988    24112616.453    24112615.554
     -2780.216       -2166.426
 -24783188.555 6  -4887955.624 6  23659591.256    23659611.672    23659610.173
      -986.512        -768.734
 -24853593.329 8 -19023791.094 8  20213852.531    20213875.885    20213873.696
       281.838         219.625
  -1244610.826 5  -1021989.855 5  24717603.629    24717621.197    24717621.257
     -3691.137       -2876.325
         0.000 1         0.000 1  20525171.439           0.000           0.000
         0.000           0.000
 92  6 13 15  1 51.0000000  0  5 16 28 18  2 19                      0.000075420
  -4548453.266 6  -1792211.998 6  24111009.236    24111029.412    24111028.872
     -2778.909       -2165.435
 -24786145.383 6  -4890259.645 5  23659029.115    23659048.811    23659047.852
      -984.714        -767.373
 -24852745.378 8 -19023130.350 8  20214014.779    20214037.233    20214034.745
       283.396         220.848
  -1255683.942 5  -1030618.252 5  24715497.827    24715514.076    24715514.495
     -3691.000       -2876.093
         0.000 1         0.000 1  20524779.071           0.000           0.000
         0.000           0.000
 92  6 13 15  1 54.0000000  0  5 16 28 18  2 19                      0.000075070
  -4556788.546 6  -1798707.026 6  24109422.794    24109443.689    24109443.210
     -2777.842       -2164.554
 -24789097.078 6  -4892559.663 5  23658465.145    23658487.270    23658485.531
      -983.033        -766.056
 -24851892.818 8 -19022466.027 8  20214176.937    20214199.511    20214197.262
       284.910         222.031
  -1266756.396 5  -1039246.140 5  24713389.087    24713406.505    24713407.224
     -3690.724       -2875.974
         0.000 1         0.000 1  20524387.872           0.000           0.000
         0.000           0.000
 92  6 13 15  1 57.0000000  0  5 16 28 18  2 19                      0.000074710
  -4565120.119 6  -1805199.158 6  24107837.671    24107857.248    24107856.648
     -2776.537       -2163.562
 -24792043.455 6  -4894855.543 5  23657903.214    23657926.778    23657925.099
      -981.216        -764.648
 -24851035.481 8 -19021797.967 8  20214343.022    20214362.418    20214360.380
       286.604         223.331
  -1277828.045 5  -1047873.390 5  24711286.103    24711300.373    24711300.133
     -3690.473       -2875.613
         0.000 1         0.000 1  20523997.752           0.000           0.000
         0.000           0.000
 92  6 13 15  2  0.0000000  0  5 16 28 18  2 19                      0.000074360
  -4573447.994 6  -1811688.404 5  24106252.579    24106273.384    24106272.425
     -2775.288       -2162.537
 -24794984.574 6  -4897147.316 5  23657346.830    23657366.586    23657365.297
      -979.414        -763.123
 -24850173.416 7 -19021126.232 8  20214507.068    20214526.644    20214524.306
       288.220         224.590
  -1288898.835 5  -1056499.965 5  24709176.793    24709193.221    24709193.012
     -3690.042       -2875.372
         0.000 1         0.000 1  20523608.951           0.000           0.000
         0.000           0.000
 92  6 13 15  2  3.0000000  0  5 16 28 18  2 19                      0.000074010
  -4581771.908 6  -1818174.572 6  24104668.895    24104689.101    24104687.932
     -2774.080       -2161.628
 -24797920.172 6  -4899434.796 5  23656784.899    23656808.642    23656806.184
      -977.720        -761.883
 -24849306.415 7 -19020450.645 8  20214670.155    20214691.530    20214689.372
       289.712         225.738
  -1299968.461 5  -1065125.657 5  24707069.072    24707086.940    24707086.640
     -3689.749       -2875.175
         0.000 1         0.000 1  20523221.979           0.000           0.000
         0.000           0.000
 92  6 13 15  2  6.0000000  0  5 16 28 18  2 19                      0.000073660
  -4590092.280 6  -1824657.978 6  24103086.650    24103105.327    24103104.998
     -2772.899       -2160.612
 -24800850.761 6  -4901718.378 5  23656234.000    23656250.968    23656247.820
      -975.996        -760.586
 -24848434.976 7 -19019771.609 8  20214833.062    20214857.226    20214854.977
       291.224         226.954
  -1311037.453 5  -1073750.836 5  24704962.940    24704979.998    24704980.568
     -3689.515       -2874.977
         0.000 1         0.000 1  20522836.656           0.000           0.000
         0.000           0.000
 92  6 13 15  2  9.0000000  0  5 16 28 18  2 19                      0.000073310
  -4598408.897 6  -1831138.448 6  24101505.485    24101523.023    24101522.093
     -2771.595       -2159.641
 -24803776.097 6  -4903997.856 5  23655672.968    23655694.374    23655692.305
      -974.310        -759.177
 -24847558.853 8 -19019088.911 8  20215001.666    20215023.910    20215021.602
       292.793         228.133
  -1322105.569 5  -1082375.337 5  24702851.862    24702874.046    24702874.316
     -3689.295       -2874.770
         0.000 1         0.000 1  20522448.754           0.000           0.000
         0.000           0.000
 92  6 13 15  2 12.0000000  0  5 16 28 18  2 19                      0.000072960
  -4606721.920 6  -1837616.131 6  24099919.223    24099941.438    24099939.999
     -2770.331       -2158.781
 -24806696.301 6  -4906273.338 5  23655121.650    23655138.169    23655136.250
      -972.469        -757.816
 -24846678.169 7 -19018402.670 8  20215168.650    20215191.464    20215189.126
       294.362         229.368
  -1333173.031 5  -1090999.327 5  24700742.192    24700766.475    24700768.574
     -3689.027       -2874.493
         0.000 1         0.000 1  20522065.620           0.000           0.000
         0.000           0.000
 92  6 13 15  2 15.0000000  0  5 16 28 18  2 19                      0.000072600
  -4615031.217 6  -1844090.902 6  24098339.767    24098359.853    24098358.953
     -2769.127       -2157.727
 -24809611.199 6  -4908544.683 5  23654560.678    23654583.732    23654581.004
      -970.783        -756.445
 -24845792.771 7 -19017712.750 8  20215340.221    20215360.187    20215357.909
       295.942         230.607
  -1344239.627 5  -1099622.647 5  24698643.375    24698661.003    24698662.322
     -3688.695       -2874.323
         0.000 1         0.000 1  20521679.157           0.000           0.000
         0.000           0.000
 92  6 13 15  2 18.0000000  0  5 16 28 18  2 19                      0.000072250
  -4623336.683 6  -1850562.687 6  24096757.942    24096779.467    24096778.567
     -2767.873       -2156.777
 -24812520.758 6  -4910811.877 5  23654013.377    23654030.346    23654027.138
      -969.002        -755.030
 -24844902.545 7 -19017019.069 8  20215506.726    20215529.510    20215527.142
       297.532         231.855
  -1355305.315 5  -1108245.249 5  24696541.350    24696556.280    24696556.730
     -3688.373       -2874.103
         0.000 1         0.000 1  20521295.453           0.000           0.000
         0.000           0.000
 92  6 13 15  2 21.0000000  0  5 16 28 18  2 19                      0.000071900
  -4631638.459 6  -1857031.599 5  24095176.776    24095199.770    24095198.481
     -2766.638       -2155.788
 -24815425.095 6  -4913074.985 5  23653459.451    23653477.618    23653474.770
      -967.221        -753.713
 -24844007.627 8 -19016321.734 8  20215679.256    20215699.882    20215697.544
       299.041         233.032
  -1366370.260 5  -1116867.303 5  24694434.918    24694449.279    24694451.167
     -3688.144       -2873.917
         0.000 1         0.000 1  20520906.112           0.000           0.000
         0.000           0.000
 92  6 13 15  2 24.0000000  0  5 16 28 18  2 19                      0.000071550
  -4639936.505 6  -1863497.614 6  24093598.429    24093620.314    24093619.594
     -2765.339       -2154.805
 -24818324.174 6  -4915334.004 5  23652906.004    23652925.970    23652923.392
      -965.461        -752.304
 -24843107.987 7 -19015620.716 8  20215850.978    20215871.064    20215868.785
       300.693         234.305
  -1377434.520 5  -1125488.781 5  24692327.557    24692343.296    24692346.055
     -3687.934       -2873.722
         0.000 1         0.000 1  20520520.279           0.000           0.000
         0.000           0.000
 92  6 13 15  2 27.0000000  0  5 16 28 18  2 19                      0.000071190
  -4648230.685 6  -1869960.603 6  24092021.011    24092042.386    24092041.637
     -2764.156       -2153.853
 -24821217.866 6  -4917588.828 5  23652357.204    23652375.731    23652372.853
      -963.716        -750.955
 -24842203.462 7 -19014915.896 8  20216021.709    20216043.294    20216040.866
       302.270         235.576
  -1388497.928 5  -1134109.620 5  24690224.153    24690239.023    24690240.312
     -3687.670       -2873.460
         0.000 1         0.000 1  20520138.494           0.000           0.000
         0.000           0.000
 92  6 13 15  2 30.0000000  0  5 16 28 18  2 19                      0.000070840
  -4656521.009 6  -1876420.600 6  24090444.492    24090464.608    24090463.499
     -2762.728       -2152.857
 -24824106.179 6  -4919839.456 5  23651805.316    23651825.582    23651822.914
      -961.928        -749.584
 -24841294.021 7 -19014207.243 8  20216194.330    20216216.245    20216214.056
       303.930         236.834
  -1399560.474 5  -1142729.789 5  24688120.690    24688134.060    24688135.170
     -3687.407       -2873.288
         0.000 1         0.000 1  20519757.577           0.000           0.000
         0.000           0.000
 92  6 13 15  2 33.0000000  0  5 16 28 18  2 19                      0.000070490
  -4664807.592 6  -1882877.666 6  24088869.143    24088887.490    24088886.981
     -2761.609       -2151.890
 -24826989.175 6  -4922085.954 5  23651258.345    23651277.142    23651275.403
      -960.152        -748.121
 -24840379.797 7 -19013494.861 8  20216367.340    20216390.274    20216387.756
       305.476         238.041
  -1410622.221 5  -1151349.327 5  24686002.416    24686028.828    24686030.387
     -3687.234       -2873.083
         0.000 1         0.000 1  20519372.314           0.000           0.000
         0.000           0.000
 92  6 13 15  2 36.0000000  0  5 16 28 18  2 19                      0.000070140
  -4673090.584 6  -1889331.950 6  24087290.556    24087311.032    24087310.912
     -2760.424       -2150.931
 -24829867.047 6  -4924328.440 5  23650708.345    23650729.750    23650727.082
      -958.411        -746.806
 -24839460.971 7 -19012778.889 8  20216541.849    20216564.753    20216562.775
       307.044         239.272
  -1421683.438 5  -1159968.448 5  24683904.618    24683922.876    24683925.724
     -3686.980       -2872.888
         0.000 1         0.000 1  20518994.516           0.000           0.000
         0.000           0.000
 92  6 13 15  2 39.0000000  0  5 16 28 18  2 19                      0.000069790
  -4681369.760 6  -1895783.258 6  24085716.975    24085736.102    24085735.023
     -2759.142       -2150.004
 -24832739.470 6  -4926566.696 5  23650161.704    23650183.289    23650180.381
      -956.608        -745.453
 -24838537.172 8 -19012059.051 8  20216718.397    20216740.792    20216738.333
       308.696         240.545
  -1432743.810 5  -1168586.925 5  24681796.208    24681818.633    24681820.581
     -3686.789       -2872.778
         0.000 1         0.000 1  20518611.141           0.000           0.000
         0.000           0.000
 92  6 13 15  2 42.0000000  0  5 16 28 18  2 19                      0.000069430
  -4689645.461 6  -1902231.855 6  24084140.906    24084160.872    24084160.183
     -2757.933       -2149.076
 -24835606.657 6  -4928800.854 5  23649619.559    23649637.217    23649634.998
      -954.870        -743.982
 -24837608.634 8 -19011335.525 8  20216896.264    20216917.459    20216915.331
       310.310         241.779
  -1443803.577 5  -1177204.911 5  24679692.145    24679715.049    24679715.948
     -3686.455       -2872.714
         0.000 1         0.000 1  20518231.904           0.000           0.000
         0.000           0.000
 92  6 13 15  2 45.0000000  0  5 16 28 18  2 19                      0.000069080
  -4697917.806 6  -1908677.847 6  24082569.424    24082586.242    24082586.482
     -2756.808       -2148.232
 -24838468.634 6  -4931030.974 5  23649073.367    23649093.094    23649090.216
      -953.102        -742.683
 -24836675.475 8 -19010608.385 8  20217072.152    20217095.416    20217093.078
       311.856         243.015
  -1454862.725 5  -1185822.433 5  24677584.304    24677609.786    24677612.304
     -3686.194       -2872.302
         0.000 1         0.000 1  20517850.148           0.000           0.000
         0.000           0.000
 92  6 13 15  2 48.0000000  0  5 16 28 18  2 19                      0.000068730
  -4706186.669 6  -1915121.112 6  24080992.306    24081013.561    24081012.602
     -2755.691       -2147.317
 -24841325.218 6  -4933256.876 5  23648530.623    23648549.510    23648547.261
      -951.300        -741.195
 -24835737.521 8 -19009877.510 8  20217250.918    20217273.703    20217271.334
       313.433         244.258
  -1465921.038 5  -1194439.305 5  24675482.879    24675505.033    24675507.162
     -3685.932       -2872.117
         0.000 1         0.000 1  20517470.581           0.000           0.000
         0.000           0.000
 92  6 13 15  2 51.0000000  0  5 16 28 18  2 19                      0.000068370
  -4714451.710 6  -1921561.410 6  24079420.134    24079440.550    24079440.130
     -2754.381       -2146.355
 -24844176.113 6  -4935478.336 5  23647984.341    23648006.406    23648004.367
      -949.363        -739.774
 -24834794.496 8 -19009142.687 8  20217430.224    20217453.188    20217451.060
       315.111         245.563
  -1476978.152 5  -1203055.241 5  24673373.209    24673401.839    24673403.608
     -3685.514       -2871.787
         0.000 1         0.000 1  20517094.161           0.000           0.000
         0.000           0.000
 92  6 13 15  2 54.0000000  0  5 16 28 18  2 19                      0.000068020
  -4722713.129 6  -1927998.870 6  24077846.734    24077868.049    24077868.229
     -2753.184       -2145.332
 -24847021.624 6  -4937695.637 5  23647443.815    23647465.220    23647463.032
      -947.622        -738.426
 -24833846.725 8 -19008404.166 8  20217614.237    20217633.753    20217631.445
       316.712         246.767
  -1488034.336 5  -1211670.428 5  24671259.193    24671296.757    24671299.725
     -3685.184       -2871.597
         0.000 1         0.000 1  20516710.547           0.000           0.000
         0.000           0.000
 92  6 13 15  2 57.0000000  0  5 16 28 18  2 19                      0.000067660
  -4730970.819 6  -1934433.445 6  24076275.311    24076297.016    24076296.117
     -2751.865       -2144.278
 -24849861.766 6  -4939908.733 5  23646903.499    23646924.335    23646922.476
      -945.744        -736.891
 -24832894.264 8 -19007661.995 8  20217795.342    20217814.948    20217812.580
       318.349         248.045
  -1499089.502 5  -1220284.850 5  24669160.945    24669193.713    24669196.141
     -3684.875       -2871.263
         0.000 1         0.000 1  20516331.849           0.000           0.000
         0.000           0.000
 92  6 13 15  3  0.0000000  0  5 16 28 18  2 19                      0.000067310
  -4739224.739 6  -1940865.058 6  24074704.489    24074725.864    24074725.864
     -2750.671       -2143.418
 -24852696.472 6  -4942117.595 5  23646362.494    23646384.918    23646383.210
      -944.037        -735.532
 -24831937.078 8 -19006916.128 8  20217977.166    20217997.072    20217994.883
       319.819         249.226
  -1510143.667 5  -1228898.486 5  24667063.357    24667090.668    24667092.677
     -3684.530       -2871.108
         0.000 1         0.000 1  20515955.430           0.000           0.000
         0.000           0.000
 92  6 13 15  3  3.0000000  0  5 16 28 18  2 19                      0.000066960
  -4747474.810 6  -1947293.687 6  24073133.067    24073156.121    24073156.001
     -2749.427       -2142.433
 -24855525.744 6  -4944322.216 5  23645827.394    23645846.581    23645844.752
      -942.244        -734.176
 -24830975.082 8 -19006166.522 8  20218157.401    20218180.215    20218178.087
       321.405         250.479
  -1521196.780 5  -1237511.303 5  24664971.855    24664987.325    24664989.123
     -3684.226       -2870.783
         0.000 1         0.000 1  20515577.511           0.000           0.000
         0.000           0.000
 92  6 13 15  3  6.0000000  0  5 16 28 18  2 19                      0.000066600
  -4755721.043 6  -1953719.333 6  24071568.420    24071586.827    24071586.857
     -2748.140       -2141.457
 -24858349.655 6  -4946522.666 5  23645287.288    23645308.873    23645307.854
      -940.425        -732.789
 -24830008.334 8 -19005413.218 8  20218344.861    20218363.988    20218361.889
       322.976         251.690
  -1532248.881 5  -1246123.327 5  24662859.877    24662883.351    24662886.649
     -3684.001       -2870.568
         0.000 1         0.000 1  20515202.831           0.000           0.000
         0.000           0.000
 92  6 13 15  3  9.0000000  0  5 16 28 18  2 19                      0.000066250
  -4763963.377 6  -1960141.927 6  24069999.366    24070018.193    24070018.463
     -2746.910       -2140.370
 -24861168.221 6  -4948718.950 5  23644748.681    23644772.275    23644771.405
      -938.768        -731.459
 -24829036.883 8 -19004656.247 8  20218526.655    20218549.170    20218546.771
       324.515         252.881
  -1543299.981 5  -1254734.576 5  24660753.566    24660780.577    24660782.705
     -3683.562       -2870.393
         0.000 1         0.000 1  20514826.531           0.000           0.000
         0.000           0.000
 92  6 13 15  3 12.0000000  0  5 16 28 18  2 19                      0.000065900
  -4772201.882 6  -1966561.532 6  24068432.981    24068450.608    24068450.638
     -2745.573       -2139.347
 -24863981.503 6  -4950911.114 6  23644219.398    23644236.815    23644236.756
      -936.886        -730.023
 -24828060.843 8 -19003895.689 8  20218712.766    20218734.681    20218732.313
       326.096         254.120
  -1554350.147 5  -1263345.079 5  24658654.389    24658679.811    24658680.890
     -3683.291       -2869.968
         0.000 1         0.000 1  20514453.559           0.000           0.000
         0.000           0.000
 92  6 13 15  3 15.0000000  0  5 16 28 18  2 19                      0.000065550
  -4780436.419 6  -1972978.069 6  24066863.297    24066883.833    24066883.593
     -2744.297       -2138.342
 -24866789.376 6  -4953099.080 6  23643683.519    23643702.825    23643702.046
      -935.040        -728.565
 -24827080.100 8 -19003131.484 8  20218901.636    20218921.362    20218918.964
       327.673         255.320
  -1565399.202 5  -1271954.742 5  24656543.100    24656576.317    24656578.176
     -3682.774       -2869.665
         0.000 1         0.000 1  20514076.061           0.000           0.000
         0.000           0.000
 92  6 13 15  3 18.0000000  0  5 16 28 18  2 19                      0.000065190
  -4788666.959 6  -1979391.474 6  24065295.173    24065317.657    24065317.238
     -2742.818       -2137.279
 -24869591.747 6  -4955282.746 6  23643151.897    23643169.434    23643169.045
      -933.254        -727.140
 -24826094.598 8 -19002363.560 8  20219087.057    20219108.882    20219106.574
       329.244         256.573
  -1576447.077 5  -1280563.468 5  24654449.919    24654475.102    24654475.282
     -3682.399       -2869.462
         0.000 1         0.000 1  20513703.958           0.000           0.000
         0.000           0.000
 92  6 13 15  3 21.0000000  0  5 16 28 18  2 19                      0.000064840
  -4796893.579 6  -1985801.825 6  24063732.714    24063752.081    24063752.051
     -2741.604       -2136.329
 -24872388.769 6  -4957462.241 6  23642617.576    23642636.973    23642636.553
      -931.545        -725.889
 -24825104.453 8 -19001592.019 8  20219275.987    20219297.332    20219295.083
       330.797         257.734
  -1587493.926 5  -1289171.394 5  24652350.233    24652371.518    24652373.497
     -3682.078       -2869.268
         0.000 1         0.000 1  20513327.539           0.000           0.000
         0.000           0.000
 92  6 13 15  3 24.0000000  0  5 16 28 18  2 19                      0.000064490
  -4805116.299 6  -1992209.151 6  24062165.010    24062187.404    24062187.224
     -2740.282       -2135.294
 -24875180.516 6  -4959637.641 6  23642084.276    23642106.131    23642105.831
      -929.758        -724.535
 -24824109.698 8 -19000816.893 8  20219463.537    20219486.351    20219484.612
       332.362         258.985
  -1598539.809 5  -1297778.583 5  24650251.026    24650270.843    24650271.952
     -3681.833       -2868.925
         0.000 1         0.000 1  20512956.486           0.000           0.000
         0.000           0.000
 92  6 13 15  3 27.0000000  0  5 16 28 18  2 19                      0.000064140
  -4813334.747 6  -1998613.131 6  24060602.432    24060623.747    24060623.867
     -2738.768       -2134.047
 -24877966.655 6  -4961808.665 6  23641554.213    23641575.528    23641576.367
      -927.789        -722.968
 -24823110.026 8 -19000037.915 8  20219654.744    20219676.869    20219674.591
       334.046         260.303
  -1609584.324 5  -1306384.694 5  24648143.905    24648169.837    24648169.777
     -3681.282       -2868.571
         0.000 1         0.000 1  20512579.347           0.000           0.000
         0.000           0.000
 92  6 13 15  3 30.0000000  0  5 16 28 18  2 19                      0.000063790
  -4821549.076 6  -2005013.914 6  24059041.772    24059060.629    24059060.509
     -2737.424       -2133.035
 -24880747.423 6  -4963975.487 6  23641022.591    23641046.514    23641046.694
      -925.983        -721.538
 -24822105.663 8 -18999255.302 8  20219846.162    20219867.657    20219865.858
       335.572         261.487
  -1620627.597 5  -1314989.835 5  24646051.923    24646067.632    24646068.712
     -3680.879       -2868.236
         0.000 1         0.000 1  20512208.294           0.000           0.000
         0.000           0.000
 92  6 13 15  3 33.0000000  0  5 16 28 18  2 19                      0.000063440
  -4829759.285 6  -2011411.478 6  24057476.166    24057497.721    24057498.560
     -2736.038       -2131.985
 -24883522.835 6  -4966138.155 6  23640495.645    23640517.950    23640518.879
      -924.174        -720.175
 -24821096.626 8 -18998469.044 8  20220039.168    20220059.764    20220057.815
       337.141         262.764
  -1631669.627 5  -1323594.012 5  24643937.097    24643966.627    24643966.747
     -3680.390       -2867.858
         0.000 1         0.000 1  20511834.572           0.000           0.000
         0.000           0.000
 92  6 13 15  3 36.0000000  0  5 16 28 18  2 19                      0.000063080
  -4837965.189 6  -2017805.691 6  24055912.628    24055936.522    24055936.552
     -2734.590       -2130.828
 -24886292.771 6  -4968296.548 6  23639971.848    23639991.395    23639991.844
      -922.400        -718.767
 -24820082.823 8 -18997679.065 8  20220233.014    20220252.800    20220250.852
       338.743         263.956
         0.000 1  -1332197.137 5  24641847.094           0.000    24641866.881
         0.000       -2867.543
         0.000 1         0.000 1  20511464.299           0.000           0.000
         0.000           0.000
 92  6 13 15  3 39.0000000  0  5 16 28 18  2 19                      0.000062730
  -4846166.849 6  -2024196.593 6  24054353.048    24054375.382    24054376.132
     -2733.106       -2129.694
 -24889057.249 6  -4970450.685 6  23639440.706    23639465.109    23639465.559
      -920.564        -717.347
 -24819064.238 8 -18996885.365 8  20220423.202    20220446.196    20220444.578
       340.345         265.214
   1631667.38515  -1340799.194 5  24639742.911    24639764.796    24639765.815
     -3679.564       -2867.147
         0.000 1         0.000 1  20511091.417           0.000           0.000
         0.000           0.000
 92  6 13 15  3 42.0000000  0  5 16 28 18  2 19                      0.000062380
  -4854364.319 6  -2030584.237 6  24052796.046    24052815.892    24052816.941
     -2731.827       -2128.692
 -24891816.312 6  -4972600.610 6  23638922.484    23638940.232    23638941.042
      -918.808        -716.018
 -24818040.894 8 -18996087.956 8  20220617.618    20220641.002    20220639.413
       341.879         266.424
   1620629.437 5  -1349400.181 5  24637649.970    24637665.559    24637665.349
     -3679.023       -2866.829
         0.000 1         0.000 1  20510726.839           0.000           0.000
         0.000           0.000
 92  6 13 15  3 45.0000000  0  5 16 28 18  2 19                      0.000062030
  -4862557.618 6  -2036968.623 6  24051235.146    24051256.492    24051257.181
     -2730.395       -2127.612
 -24894569.954 6  -4974746.310 6  23638394.760    23638416.165    23638416.885
      -917.033        -714.596
 -24817012.782 8 -18995286.833 8  20220814.611    20220836.706    20220835.027
       343.507         267.653
         0.000 1  -1358000.102 6  24635543.478           0.000    24635565.093
         0.000       -2866.427
         0.000 1         0.000 1  20510353.208           0.000           0.000
         0.000           0.000
 92  6 13 15  3 48.0000000  0  5 16 28 18  2 19                      0.000061690
  -4870746.785 6  -2043349.790 6  24049674.966    24049698.260    24049698.830
     -2729.036       -2126.516
 -24897318.304 6  -4976887.891 6  23637872.192    23637892.937    23637893.597
      -915.189        -713.188
 -24815979.908 8 -18994481.995 8  20221012.414    20221033.190    20221031.661
       345.160         268.922
     29434.57115  -1366599.023 5  24633448.858    24633463.788    24633464.627
     -3678.096       -2866.086
         0.000 1         0.000 1  20509988.570           0.000           0.000
         0.000           0.000
 92  6 13 15  3 51.0000000  0  5 16 28 18  2 19                      0.000061340
  -4878931.590 6  -2049727.559 6  24048119.223    24048140.689    24048140.958
     -2727.479       -2125.369
 -24900061.231 6  -4979025.228 6  23637350.013    23637370.969    23637371.328
      -913.385        -711.773
 -24814942.076 8 -18993673.295 8  20221208.089    20221230.603    20221229.194
       346.763         270.198
         0.000 1  -1375196.775 5  24631346.234           0.000    24631365.451
         0.000       -2865.756
         0.000 1         0.000 1  20509619.646           0.000           0.000
         0.000           0.000
 92  6 13 15  3 54.0000000  0  5 16 28 18  2 19                      0.000060990
  -4887111.927 6  -2056101.843 6  24046561.742    24046583.746    24046584.646
     -2726.015       -2124.135
 -24902798.594 6  -4981158.246 6  23636827.175    23636850.229    23636850.649
      -911.512        -710.256
 -24813899.227 8 -18992860.687 8  20221407.541    20221429.306    20221427.537
       348.425         271.521
      7355.58515  -1383793.298 5  24629249.096    24629265.344    24629266.783
     -3677.014       -2865.361
         0.000 1         0.000 1  20509252.850           0.000           0.000
         0.000           0.000
 92  6 13 15  3 57.0000000  0  5 16 28 18  2 19                      0.000060640
  -4895287.837 6  -2062472.685 6  24045007.288    24045028.153    24045028.573
     -2724.633       -2122.967
 -24905530.494 6  -4983286.996 6  23636311.592    23636330.749    23636331.378
      -909.680        -708.943
 -24812851.434 8 -18992044.227 8  20221606.393    20221628.518    20221626.839
       350.118         272.826
     -3675.153 5  -1392388.673 5  24627150.488    24627166.078    24627166.827
     -3676.620       -2864.890
         0.000 1         0.000 1  20508878.499           0.000           0.000
         0.000           0.000
 92  6 13 15  4  0.0000000  0  5 16 28 18  2 19                      0.000060290
  -4903459.406 6  -2068840.145 6  24043453.883    24043473.190    24043473.789
     -2723.119       -2121.948
 -24908256.929 6  -4985411.503 6  23635792.591    23635811.508    23635812.228
      -907.846        -707.465
 -24811798.729 8 -18991223.945 8  20221805.785    20221829.019    20221827.280
       351.764         274.052
    -14704.467 5  -1400982.940 5  24625048.224    24625067.381    24625067.620
     -3676.151       -2864.553
         0.000 1         0.000 1  20508517.339           0.000           0.000
         0.000           0.000
 92  6 13 15  4  3.0000000  0  5 16 28 18  2 19                      0.000059940
  -4911626.651 6  -2075204.225 6  24041899.459    24041918.976    24041919.396
     -2721.693       -2120.796
 -24910977.869 6  -4987531.719 6  23635275.269    23635293.707    23635294.606
      -906.064        -706.079
 -24810741.108 8 -18990399.821 8  20222008.655    20222030.360    20222028.531
       353.378         275.338
    -25732.377 5  -1409576.103 5  24622953.904    24622968.923    24622969.193
     -3675.712       -2864.242
         0.000 1         0.000 1  20508151.142           0.000           0.000
         0.000           0.000
 92  6 13 15  4  6.0000000  0  5 16 28 18  2 19                      0.000059590
  -4919789.612 6  -2081564.971 6  24040343.387    24040365.451    24040365.841
     -2720.350       -2119.792
 -24913693.345 6  -4989647.671 6  23634755.070    23634776.924    23634777.674
      -904.277        -704.603
 -24809678.611 8 -18989571.900 8  20222212.064    20222232.630    20222230.891
       354.915         276.561
    -36758.895 5  -1418168.206 5  24620849.481    24620870.676    24620871.335
     -3675.360       -2863.886
         0.000 1         0.000 1  20507784.047           0.000           0.000
         0.000           0.000
 92  6 13 15  4  9.0000000  0  5 16 28 18  2 19                      0.000059250
  -4927948.431 6  -2087922.495 6  24038792.920    24038813.156    24038813.186
     -2718.907       -2118.560
 -24916403.509 6  -4991759.490 6  23634242.664    23634261.881    23634262.091
      -902.490        -703.243
 -24808611.420 8 -18988740.325 8  20222413.674    20222435.799    20222433.611
       356.546         277.792
    -47784.203 5  -1426759.340 5  24618754.831    24618772.848    24618772.818
     -3674.823       -2863.512
         0.000 1         0.000 1  20507419.109           0.000           0.000
         0.000           0.000
 92  6 13 15  4 12.0000000  0  5 16 28 18  2 19                      0.000058900
  -4936103.106 6  -2094276.783 6  24037240.625    24037261.370    24037261.910
     -2717.546       -2117.518
 -24919108.369 6  -4993867.170 6  23633729.090    23633746.688    23633747.047
      -900.741        -701.903
 -24807539.496 8 -18987905.069 8  20222617.084    20222639.688    20222637.679
       358.055         279.025
    -58808.209 5  -1435349.478 5  24616660.930    24616673.611    24616675.260
     -3674.438       -2863.190
         0.000 1         0.000 1  20507057.170           0.000           0.000
         0.000           0.000
 92  6 13 15  4 15.0000000  0  5 16 28 18  2 19                      0.000058550
  -4944253.467 6  -2100627.711 6  24035691.387    24035710.274    24035710.664
     -2716.028       -2116.335
 -24921807.872 6  -4995970.685 6  23633212.128    23633233.263    23633233.383
      -898.911        -700.425
 -24806462.781 8 -18987066.067 8  20222825.020    20222844.656    20222842.557
       359.732         280.319
    -69830.899 5  -1443938.573 5  24614571.167    24614577.702    24614577.642
     -3674.087       -2862.772
         0.000 1         0.000 1  20506690.374           0.000           0.000
         0.000           0.000
 92  6 13 15  4 18.0000000  0  5 16 28 18  2 19                      0.000058200
  -4952399.491 6  -2106975.257 6  24034139.302    24034159.598    24034160.377
     -2714.635       -2115.331
 -24924502.047 6  -4998070.046 6  23632702.031    23632720.708    23632720.138
      -897.202        -699.070
 -24805381.291 8 -18986223.350 8  20223028.729    20223050.493    20223048.155
       361.250         281.501
    -80852.205 5  -1452526.606 5  24612456.641    24612478.945    24612480.564
     -3673.574       -2862.549
         0.000 1         0.000 1  20506327.925           0.000           0.000
         0.000           0.000
 92  6 13 15  4 21.0000000  0  5 16 28 18  2 19                      0.000057860
  -4960541.298 6  -2113319.525 6  24032590.244    24032610.630    24032610.690
     -2713.274       -2114.311
 -24927191.001 6  -5000165.342 6  23632187.887    23632208.542    23632208.692
      -895.441        -697.740
 -24804295.056 8 -18985376.935 8  20223235.825    20223257.260    20223254.922
       362.837         282.731
    -91872.164 5  -1461113.575 5  24610365.618    24610381.837    24610383.456
     -3673.102       -2862.170
         0.000 1         0.000 1  20505967.604           0.000           0.000
         0.000           0.000
 92  6 13 15  4 24.0000000  0  5 16 28 18  2 19                      0.000057510
  -4968678.992 6  -2119660.579 6  24031041.606    24031062.322    24031062.322
     -2711.854       -2113.109
 -24929874.806 6  -5002256.620 6  23631683.366    23631697.966    23631697.696
      -893.710        -696.404
 -24803204.119 8 -18984526.856 8  20223443.671    20223464.537    20223462.738
       364.454         284.001
   -102890.880 5  -1469699.583 5  24608267.311    24608285.419    24608286.438
     -3672.677       -2861.833
         0.000 1         0.000 1  20505602.907           0.000           0.000
         0.000           0.000
 92  6 13 15  4 27.0000000  0  5 16 28 18  2 19                      0.000057160
  -4976812.527 6  -2125998.399 6  24029494.947    24029514.223    24029514.164
     -2710.518       -2112.114
 -24932553.379 6  -5004343.823 6  23631169.252    23631188.379    23631188.379
      -891.968        -695.040
 -24802108.396 8 -18983673.045 8  20223652.866    20223673.462    20223671.154
       366.053         285.253
   -113908.290 5  -1478284.580 5  24606175.029    24606188.370    24606190.199
     -3672.316       -2861.484
         0.000 1         0.000 1  20505252.569           0.000           0.000
         0.000           0.000
 92  6 13 15  4 30.0000000  0  5 16 28 18  2 19                      0.000056820
  -4984941.874 6  -2132332.956 6  24027945.110    24027967.504    24027967.414
     -2709.103       -2111.012
 -24935226.631 6  -5006426.873 6  23630663.832    23630679.631    23630679.151
      -890.175        -693.622
 -24801007.810 8 -18982815.451 8  20223860.683    20223882.957    20223880.619
       367.671         286.530
   -124924.334 5  -1486868.493 5  24604077.592    24604092.012    24604093.301
     -3671.663       -2861.101
         0.000 1         0.000 1  20504888.261           0.000           0.000
         0.000           0.000
 92  6 13 15  4 33.0000000  0  5 16 28 18  2 19                      0.000056470
  -4993066.937 6  -2138664.165 6  24026401.388    24026421.475    24026421.145
     -2707.687       -2109.918
 -24937894.499 6  -5008505.730 6  23630152.206    23630172.202    23630171.033
      -888.406        -692.251
 -24799902.327 8 -18981954.038 8  20224073.175    20224093.411    20224090.983
       369.267         287.754
   -135938.867 5  -1495451.249 5  24601973.648    24601996.882    24601997.691
     -3671.296       -2860.795
         0.000 1         0.000 1  20504523.084           0.000           0.000
         0.000           0.000
 92  6 13 15  4 36.0000000  0  5 16 28 18  2 19                      0.000056120
  -5001187.827 6  -2144992.128 6  24024855.509    24024876.224    24024875.655
     -2706.220       -2108.764
 -24940557.080 6  -5010580.471 6  23629651.553    23629665.643    23629664.893
      -886.605        -690.861
 -24798792.043 8 -18981088.884 8  20224282.760    20224304.735    20224302.367
       370.941         289.027
   -146951.998 5  -1504032.902 5  24599880.407    24599900.343    24599902.352
     -3670.842       -2860.436
         0.000 1         0.000 1  20504161.804           0.000           0.000
         0.000           0.000
 92  6 13 15  4 39.0000000  0  5 16 28 18  2 19                      0.000055770
  -5009304.514 6  -2151316.820 6  24023308.789    24023331.484    24023331.664
     -2704.846       -2107.643
 -24943214.308 6  -5012651.037 5  23629137.648    23629159.773    23629158.814
      -884.870        -689.542
 -24797676.938 8 -18980219.972 8  20224494.174    20224516.808    20224514.410
       372.463         290.244
   -157963.736 5  -1512613.466 5  24597783.899    24597804.974    24597806.383
     -3670.416       -2860.043
         0.000 1         0.000 1  20503808.409           0.000           0.000
         0.000           0.000
 92  6 13 15  4 42.0000000  0  5 16 28 18  2 19                      0.000055430
  -5017417.088 6  -2157638.306 6  24021765.398    24021787.852    24021787.133
     -2703.493       -2106.688
 -24945866.343 6  -5014717.548 5  23628638.254    23628655.342    23628654.563
      -883.156        -688.171
 -24796557.136 8 -18979347.403 8  20224707.926    20224729.841    20224727.802
       374.016         291.457
   -168974.176 5  -1521193.026 6  24595688.679    24595710.534    24595711.463
     -3669.889       -2859.735
         0.000 1         0.000 1  20503450.876           0.000           0.000
         0.000           0.000
 92  6 13 15  4 45.0000000  0  5 16 28 18  2 19                      0.000055080
  -5025525.558 6  -2163956.587 6  24020222.276    24020244.671    24020244.641
     -2702.151       -2105.526
 -24948513.288 6  -5016780.107 5  23628130.795    23628151.721    23628150.342
      -881.482        -686.862
 -24795432.734 8 -18978471.242 8  20224922.428    20224944.013    20224941.734
       375.576         292.666
   -179983.341 5  -1529771.593 5  24593592.051    24593613.815    24593616.813
     -3669.581       -2859.315
         0.000 1         0.000 1  20503091.935           0.000           0.000
         0.000           0.000
 92  6 13 15  4 48.0000000  0  5 16 28 18  2 19                      0.000054730
  -5033629.802 6  -2170271.585 6  24018682.542    24018702.448    24018702.568
     -2700.748       -2104.494
 -24951155.063 6  -5018838.632 5  23627628.013    23627649.239    23627647.890
      -879.754        -685.549
 -24794303.606 8 -18977591.407 8  20225138.038    20225158.514    20225156.476
       377.082         293.849
   -190991.094 5  -1538349.056 5  24591493.054    24591519.555    24591521.624
     -3669.113       -2858.961
         0.000 1         0.000 1  20502734.762           0.000           0.000
         0.000           0.000
 92  6 13 15  4 51.0000000  0  5 16 28 18  2 19                      0.000054390
  -5041729.995 6  -2176583.424 6  24017139.300    24017161.185    24017160.885
     -2699.344       -2103.453
 -24953791.830 6  -5020893.256 5  23627126.820    23627147.086    23627146.517
      -878.051        -684.188
 -24793169.945 8 -18976708.039 8  20225351.670    20225374.215    20225372.026
       378.645         295.067
   -201997.583 5  -1546925.536 5  24589405.269    24589425.385    24589427.034
     -3668.702       -2858.606
         0.000 1         0.000 1  20502381.007           0.000           0.000
         0.000           0.000
 92  6 13 15  4 54.0000000  0  5 16 28 18  2 19                      0.000054040
  -5049825.893 6  -2182891.914 6  24015598.667    24015620.492    24015620.162
     -2697.906       -2102.207
 -24956423.383 6  -5022943.809 5  23626625.478    23626646.493    23626644.874
      -876.290        -682.852
 -24792031.591 8 -18975821.008 8  20225568.780    20225590.965    20225588.656
       380.283         296.302
   -213002.691 5  -1555500.943 5  24587314.426    24587331.155    24587333.014
     -3668.069       -2858.187
         0.000 1         0.000 1  20502024.734           0.000           0.000
         0.000           0.000
 92  6 13 15  4 57.0000000  0  5 16 28 18  2 19                      0.000053690
  -5057917.399 6  -2189196.983 6  24014059.143    24014081.208    24014080.398
     -2696.451       -2101.212
 -24959049.741 6  -5024990.334 5  23626129.681    23626146.619    23626145.150
      -874.598        -681.609
 -24790888.492 8 -18974930.288 8  20225787.599    20225808.254    20225806.126
       381.769         297.519
   -224006.446 5  -1564075.290 5  24585214.500    24585236.985    24585238.753
     -3667.742       -2858.025
         0.000 1         0.000 1  20501672.717           0.000           0.000
         0.000           0.000
 92  6 13 15  5  0.0000000  0  5 16 28 18  2 19                      0.000053350
  -5066004.615 6  -2195498.706 6  24012521.567    24012541.923    24012541.413
     -2695.033       -2100.059
 -24961671.035 6  -5027032.878 5  23625629.687    23625648.034    23625646.565
      -872.912        -680.159
 -24789740.799 8 -18974035.981 8  20226006.627    20226026.743    20226024.405
       383.381         298.731
   -235004.915 5  -1572645.637 5  24583128.035    24583144.763    24583146.652
     -3667.339       -2857.554
         0.000 1         0.000 1  20501315.605           0.000           0.000
         0.000           0.000
 92  6 13 15  5  3.0000000  0  5 16 28 18  2 19                      0.000053000
  -5074087.354 6  -2201796.942 6  24010981.713    24011003.778    24011003.148
     -2693.460       -2098.806
 -24964287.108 6  -5029071.385 5  23625129.693    23625150.169    23625149.090
      -871.117        -678.807
 -24788588.414 8 -18973138.019 8  20226224.546    20226246.071    20226243.733
       384.950         299.958
   -246009.975 5  -1581220.887 5  24581032.635    24581050.203    24581051.852
     -3666.799       -2857.147
         0.000 1         0.000 1  20500960.231           0.000           0.000
         0.000           0.000
 92  6 13 15  5  6.0000000  0  5 16 28 18  2 19                      0.000052650
  -5082165.448 6  -2208091.562 6  24009449.654    24009466.772    24009466.412
     -2692.010       -2097.708
 -24966897.959 6  -5031105.811 5  23624629.879    23624653.053    23624651.434
      -869.534        -677.522
 -24787431.277 7 -18972236.352 8  20226442.795    20226466.149    20226463.900
       386.412         301.085
   -257009.481 5  -1589791.933 5  24578939.994    24578957.742    24578959.091
     -3666.326       -2856.911
         0.000 1         0.000 1  20500606.236           0.000           0.000
         0.000           0.000
 92  6 13 15  5  9.0000000  0  5 16 28 18  2 19                      0.000052310
  -5090239.184 6  -2214382.771 6  24007910.639    24007929.826    24007930.246
     -2690.440       -2096.476
 -24969503.900 6  -5033136.418 5  23624134.982    23624156.926    23624155.338
      -867.774        -676.215
 -24786269.672 8 -18971331.210 8  20226664.552    20226687.126    20226684.937
       388.001         302.338
   -268007.867 5  -1598362.095 5  24576847.233    24576864.471    24576865.760
     -3665.847       -2856.540
         0.000 1         0.000 1  20500253.320           0.000           0.000
         0.000           0.000
 92  6 13 15  5 12.0000000  0  5 16 28 18  2 19                      0.000051960
  -5098308.340 6  -2220670.439 6  24006373.603    24006394.589    24006394.409
     -2689.008       -2095.316
 -24972104.762 6  -5035163.061 5  23623640.234    23623662.089    23623660.920
      -866.108        -674.975
 -24785103.404 8 -18970422.438 8  20226888.407    20226908.972    20226906.994
       389.489         303.509
   -279004.953 5  -1606931.248 6  24574754.711    24574771.620    24574773.598
     -3665.466       -2856.362
         0.000 1         0.000 1  20499902.982           0.000           0.000
         0.000           0.000
 92  6 13 15  5 15.0000000  0  5 16 28 18  2 19                      0.000051620
  -5106373.111 6  -2226954.673 6  24004841.064    24004859.592    24004859.442
     -2687.460       -2094.129
 -24974700.682 6  -5037185.848 5  23623146.806    23623167.971    23623166.682
      -864.387        -673.601
 -24783932.648 8 -18969510.157 8  20227111.062    20227131.958    20227129.769
       391.090         304.716
   -290000.883 5  -1615499.499 5  24572657.603    24572679.368    24572680.657
     -3665.068       -2855.898
         0.000 1         0.000 1  20499544.730           0.000           0.000
         0.000           0.000
 92  6 13 15  5 18.0000000  0  5 16 28 18  2 19                      0.000051270
  -5114433.486 6  -2233235.481 6  24003303.489    24003326.003    24003325.823
     -2686.101       -2093.098
 -24977291.466 6  -5039204.643 5  23622653.707    23622674.723    23622673.344
      -862.742        -672.293
 -24782757.269 8 -18968594.282 8  20227334.258    20227355.423    20227353.205
       392.545         305.859
   -300995.555 5  -1624066.778 5  24570559.146    24570587.116    24570588.735
     -3664.708       -2855.589
         0.000 1         0.000 1  20499198.320           0.000           0.000
         0.000           0.000
 92  6 13 15  5 21.0000000  0  5 16 28 18  2 19                      0.000050920
  -5122489.616 6  -2239512.984 6  24001774.787    24001792.595    24001792.475
     -2684.671       -2091.916
 -24979877.269 6  -5041219.549 5  23622157.970    23622182.583    23622181.414
      -861.079        -670.980
 -24781577.414 8 -18967674.915 8  20227560.092    20227579.998    20227577.899
       394.075         307.065
   -311989.091 5  -1632633.163 5  24568468.603    24568494.325    24568496.514
     -3664.355       -2855.324
         0.000 1         0.000 1  20498849.362           0.000           0.000
         0.000           0.000
 92  6 13 15  5 24.0000000  0  5 16 28 18  2 19                      0.000050580
  -5130541.365 6  -2245787.069 6  24000240.929    24000260.505    24000260.535
     -2683.214       -2090.767
 -24982457.932 6  -5043230.451 5  23621674.195    23621691.223    23621690.804
      -859.239        -669.597
 -24780392.942 7 -18966751.951 8  20227785.805    20227805.412    20227803.253
       395.666         308.271
   -322981.269 5  -1641198.487 5  24566379.020    24566402.254    24566404.412
     -3663.716       -2854.816
         0.000 1         0.000 1  20498495.067           0.000           0.000
         0.000           0.000
 92  6 13 15  5 27.0000000  0  5 16 28 18  2 19                      0.000050230
  -5138588.808 6  -2252057.809 6  23998710.818    23998728.416    23998729.285
     -2681.722       -2089.636
 -24985033.479 6  -5045237.374 5  23621178.339    23621200.943    23621200.673
      -857.601        -668.180
 -24779203.944 8 -18965825.459 8  20228012.898    20228031.485    20228029.597
       397.146         309.456
   -333972.091 5  -1649762.762 5  24564283.111    24564311.261    24564313.180
     -3663.235       -2854.644
         0.000 1         0.000 1  20498148.717           0.000           0.000
         0.000           0.000
 92  6 13 15  5 30.0000000  0  5 16 28 18  2 19                      0.000049890
  -5146631.805 6  -2258325.070 6  23997179.718    23997198.335    23997198.665
     -2680.259       -2088.505
 -24987603.679 6  -5047240.120 5  23620689.467    23620711.981    23620711.742
      -855.883        -666.874
 -24778010.254 7 -18964895.318 8  20228238.942    20228258.848    20228256.959
       398.673         310.662
   -344961.365 5  -1658325.837 5  24562197.035    24562219.939    24562221.378
     -3662.806       -2854.161
         0.000 1         0.000 1  20497798.320           0.000           0.000
         0.000           0.000
 92  6 13 15  5 33.0000000  0  5 16 28 18  2 19                      0.000049540
  -5154670.653 6  -2264589.102 6  23995649.787    23995668.045    23995668.794
     -2678.968       -2087.496
 -24990168.773 6  -5049238.902 5  23620200.326    23620223.919    23620223.410
      -854.180        -665.610
 -24776812.010 8 -18963961.622 8  20228466.454    20228486.570    20228484.741
       400.183         311.833
   -355949.280 5  -1666887.835 5  24560104.513    24560128.827    24560130.805
     -3662.442       -2853.824
         0.000 1         0.000 1  20497451.310           0.000           0.000
         0.000           0.000
 92  6 13 15  5 36.0000000  0  5 16 28 18  2 19                      0.000049190
  -5162705.385 6  -2270849.944 6  23994118.208    23994139.553    23994139.943
     -2677.478       -2086.366
 -24992728.872 6  -5051233.788 5  23619714.992    23619736.756    23619736.367
      -852.469        -664.236
 -24775609.323 8 -18963024.463 8  20228694.386    20228715.672    20228713.663
       401.666         312.995
   -366936.003 5  -1675448.915 5  24558017.268    24558039.363    24558039.933
     -3662.047       -2853.556
         0.000 1         0.000 1  20497106.249           0.000           0.000
         0.000           0.000
 92  6 13 15  5 39.0000000  0  5 16 28 18  2 19                      0.000048850
  -5170735.930 6  -2277107.513 6  23992592.174    23992610.911    23992611.780
     -2676.274       -2085.411
 -24995283.907 6  -5053224.719 5  23619226.060    23619250.463    23619250.613
      -850.847        -663.029
 -24774402.012 7 -18962083.703 8  20228923.907    20228945.403    20228943.424
       403.196         314.184
   -377921.481 5  -1684009.012 5  24555923.308    24555948.281    24555949.330
     -3661.658       -2853.255
         0.000 1         0.000 1  20496758.699           0.000           0.000
         0.000           0.000
 92  6 13 15  5 42.0000000  0  5 16 28 18  2 19                      0.000048500
  -5178762.286 6  -2283361.804 6  23991062.333    23991083.079    23991084.818
     -2674.796       -2084.225
 -24997833.843 6  -5055211.681 5  23618744.743    23618764.829    23618765.609
      -849.126        -661.604
 -24773190.047 8 -18961139.315 8  20229154.118    20229176.123    20229174.114
       404.802         315.412
   -388905.751 5  -1692568.174 5  24553830.547    24553857.948    24553859.477
     -3661.298       -2852.845
         0.000 1         0.000 1  20496416.486           0.000           0.000
         0.000           0.000
 92  6 13 15  5 45.0000000  0  5 16 28 18  2 19                      0.000048160
  -5186784.520 6  -2289612.893 6  23989533.961    23989557.045    23989557.855
     -2673.370       -2083.138
 -25000378.727 6  -5057194.713 6  23618258.030    23618280.844    23618281.084
      -847.451        -660.321
 -24771973.462 8 -18960191.328 8  20229385.858    20229407.772    20229405.524
       406.300         316.591
   -399888.800 5  -1701126.401 6  24551747.139    24551767.975    24551769.084
     -3660.928       -2852.544
         0.000 1         0.000 1  20496065.969           0.000           0.000
         0.000           0.000
 92  6 13 15  5 48.0000000  0  5 16 28 18  2 19                      0.000047810
  -5194802.645 6  -2295860.786 6  23988009.487    23988031.102    23988032.091
     -2671.976       -2082.054
 -25002918.614 6  -5059173.850 6  23617772.876    23617797.549    23617798.508
      -845.801        -658.980
 -24770752.315 8 -18959239.786 8  20229617.687    20229640.082    20229638.073
       407.829         317.807
   -410870.732 5  -1709683.737 5  24549654.438    24549678.181    24549679.201
     -3660.427       -2852.342
         0.000 1         0.000 1  20495724.955           0.000           0.000
         0.000           0.000
 92  6 13 15  5 51.0000000  0  5 16 28 18  2 19                      0.000047460
  -5202816.576 6  -2302105.403 6  23986483.063    23986506.057    23986507.017
     -2670.542       -2081.047
 -25005453.398 6  -5061149.003 6  23617293.898    23617315.033    23617315.962
      -844.111        -657.795
 -24769526.564 8 -18958284.646 8  20229851.165    20229873.290    20229871.371
       409.362         318.957
   -421851.496 5  -1718240.159 5  24547570.341    24547588.088    24547589.228
     -3660.013       -2852.049
         0.000 1         0.000 1  20495379.324           0.000           0.000
         0.000           0.000
 92  6 13 15  5 54.0000000  0  5 16 28 18  2 19                      0.000047120
  -5210826.530 6  -2308346.927 6  23984961.257    23984981.583    23984982.482
     -2669.265       -2080.062
 -25007983.272 6  -5063120.345 6  23616807.065    23616833.746    23616834.616
      -842.422        -656.434
 -24768296.405 7 -18957326.095 8  20230086.982    20230107.398    20230105.389
       410.806         320.089
   -432831.307 5  -1726795.866 5  24545478.299    24545499.974    24545500.514
     -3659.837       -2851.812
         0.000 1         0.000 1  20495032.554           0.000           0.000
         0.000           0.000
 92  6 13 15  5 57.0000000  0  5 16 28 18  2 19                      0.000046770
  -5218832.315 6  -2314585.200 6  23983438.701    23983458.487    23983459.536
     -2667.955       -2078.935
 -25010508.065 6  -5065087.708 6  23616335.371    23616352.999    23616354.258
      -840.851        -655.185
 -24767061.607 7 -18956363.915 8  20230320.161    20230341.926    20230340.577
       412.273         321.284
   -443809.949 5  -1735350.654 5  24543387.996    24543410.750    24543411.260
     -3659.458       -2851.550
         0.000 1         0.000 1  20494694.118           0.000           0.000
         0.000           0.000
 92  6 13 15  6  0.0000000  0  5 16 28 18  2 19                      0.000046430
  -5226834.220 6  -2320820.440 6  23981916.385    23981935.811    23981936.891
     -2666.572       -2077.910
 -25013027.985 6  -5067051.294 6  23615848.658    23615873.901    23615874.171
      -839.087        -653.816
 -24765822.392 7 -18955398.299 8  20230554.059    20230578.072    20230576.214
       413.858         322.487
   -454787.715 5  -1743904.753 5  24541295.325    24541320.387    24541321.886
     -3658.978       -2851.234
         0.000 1         0.000 1  20494353.344           0.000           0.000
         0.000           0.000
 92  6 13 15  6  3.0000000  0  5 16 28 18  2 19                      0.000046080
  -5234831.886 6  -2327052.388 6  23980390.231    23980414.125    23980414.245
     -2665.143       -2076.752
 -25015542.770 6  -5069010.864 6  23615371.958    23615395.282    23615396.032
      -837.379        -652.517
 -24764578.486 7 -18954429.016 8  20230790.835    20230814.848    20230812.840
       415.471         323.748
   -465764.334 5  -1752457.960 5  24539205.172    24539232.543    24539233.952
     -3658.703       -2850.887
         0.000 1         0.000 1  20494006.215           0.000           0.000
         0.000           0.000
 92  6 13 15  6  6.0000000  0  5 16 28 18  2 19                      0.000045730
  -5242825.508 6  -2333281.190 6  23978873.072    23978893.008    23978893.368
     -2663.849       -2075.741
 -25018052.550 6  -5070966.535 6  23614892.230    23614917.773    23614918.162
      -835.724        -651.194
 -24763330.033 7 -18953456.198 8  20231031.748    20231052.074    20231050.485
       416.953         324.881
   -476740.060 5  -1761010.466 6  24537123.623    24537144.189    24537144.758
     -3658.344       -2850.736
         0.000 1         0.000 1  20493666.400           0.000           0.000
         0.000           0.000
 92  6 13 15  6  9.0000000  0  5 16 28 18  2 19                      0.000045390
  -5250815.016 6  -2339506.775 6  23977351.595    23977372.970    23977372.970
     -2662.480       -2074.585
 -25020557.198 6  -5072918.219 6  23614419.338    23614441.133    23614441.882
      -833.986        -649.867
 -24762076.988 7 -18952479.802 8  20231267.565    20231290.739    20231288.940
       418.441         326.031
   -487714.836 5  -1769562.237 5  24535034.339    24535055.415    24535056.554
     -3658.124       -2850.540
         0.000 1         0.000 1  20493324.007           0.000           0.000
         0.000           0.000
 92  6 13 15  6 12.0000000  0  5 16 28 18  2 19                      0.000045040
  -5258800.637 6  -2345729.334 6  23975830.628    23975853.412    23975853.472
     -2661.202       -2073.708
 -25023056.892 6  -5074866.022 6  23613945.576    23613965.392    23613965.662
      -832.353        -648.628
 -24760819.679 7 -18951500.083 8  20231506.859    20231530.123    20231528.324
       419.837         327.151
   -498688.836 5  -1778113.403 5  24532943.557    24532967.570    24532968.289
     -3657.898       -2850.283
         0.000 1         0.000 1  20492985.212           0.000           0.000
         0.000           0.000
 92  6 13 15  6 15.0000000  0  5 16 28 18  2 19                      0.000044700
  -5266782.088 6  -2351948.651 6  23974315.567    23974334.604    23974334.094
     -2659.783       -2072.578
 -25025551.280 6  -5076809.717 6  23613473.403    23613491.240    23613491.090
      -830.565        -647.160
 -24759557.850 7 -18950516.838 8  20231746.903    20231770.107    20231768.458
       421.401         328.369
   -509661.799 5  -1786663.768 6  24530858.140    24530878.676    24530880.205
     -3657.539       -2850.016
         0.000 1         0.000 1  20492642.699           0.000           0.000
         0.000           0.000
 92  6 13 15  6 18.0000000  0  5 16 28 18  2 19                      0.000044350
  -5274759.326 6  -2358164.680 6  23972795.979    23972816.604    23972815.885
     -2658.264       -2071.510
 -25028040.373 6  -5078749.259 6  23612996.733    23613017.388    23613017.358
      -828.774        -645.846
 -24758291.446 8 -18949530.029 8  20231989.495    20232011.140    20232009.461
       422.914         329.563
   -520633.724 5  -1795213.307 6  24528768.677    24528791.221    24528791.941
     -3657.122       -2849.637
         0.000 1         0.000 1  20492306.332           0.000           0.000
         0.000           0.000
 92  6 13 15  6 21.0000000  0  5 16 28 18  2 19                      0.000044010
  -5282732.379 6  -2364377.444 6  23971278.819    23971299.445    23971298.455
     -2657.042       -2070.372
 -25030524.166 6  -5080684.688 6  23612524.739    23612545.035    23612544.975
      -827.012        -644.452
 -24757020.442 7 -18948539.639 8  20232231.877    20232253.223    20232251.394
       424.449         330.735
   -531604.615 5  -1803762.063 5  24526682.601    24526702.957    24526704.606
     -3656.683       -2849.511
         0.000 1         0.000 1  20491960.341           0.000           0.000
         0.000           0.000
 92  6 13 15  6 24.0000000  0  5 16 28 18  2 19                      0.000043660
  -5290701.410 6  -2370587.085 5  23969762.349    23969783.304    23969781.835
     -2655.607       -2069.262
 -25033002.811 6  -5082616.108 6  23612052.146    23612073.102    23612073.402
      -825.327        -643.117
 -24755745.051 7 -18947545.828 8  20232472.910    20232495.815    20232493.926
       425.904         331.878
   -542574.662 5  -1812310.140 5  24524603.300    24524616.281    24524617.001
     -3656.569       -2849.202
         0.000 1         0.000 1  20491627.901           0.000           0.000
         0.000           0.000
 92  6 13 15  6 27.0000000  0  5 16 28 18  2 19                      0.000043320
  -5298666.161 6  -2376793.373 5  23968245.189    23968266.984    23968265.965
     -2654.190       -2068.256
 -25035476.151 6  -5084543.386 6  23611582.671    23611602.488    23611602.338
      -823.544        -641.734
 -24754465.085 7 -18946548.455 8  20232717.811    20232739.366    20232737.567
       427.453         333.066
   -553543.659 5  -1820857.407 6  24522509.430    24522528.737    24522529.756
     -3656.188       -2848.962
         0.000 1         0.000 1  20491289.675           0.000           0.000
         0.000           0.000
 92  6 13 15  6 30.0000000  0  5 16 28 18  2 19                      0.000042970
  -5306626.707 6  -2382996.396 5  23966736.364    23966752.612    23966751.413
     -2652.860       -2067.105
 -25037944.333 6  -5086466.634 6  23611112.567    23611132.803    23611133.013
      -821.881        -640.444
 -24753180.665 7 -18945547.608 8  20232961.332    20232983.967    20232981.748
       428.872         334.208
   -564511.715 5  -1829403.934 5  24520416.969    24520441.252    24520442.481
     -3655.894       -2848.730
         0.000 1         0.000 1  20490950.760           0.000           0.000
         0.000           0.000
 92  6 13 15  6 33.0000000  0  5 16 28 18  2 19                      0.000042630
  -5314583.050 6  -2389196.133 5  23965219.744    23965238.750    23965237.431
     -2651.358       -2066.068
 -25040407.342 6  -5088385.879 6  23610645.490    23610664.167    23610664.497
      -820.193        -639.096
 -24751891.745 7 -18944543.260 8  20233207.222    20233228.927    20233227.338
       430.383         335.341
   -575478.853 5  -1837949.757 5  24518336.889    24518355.206    24518355.985
     -3655.564       -2848.490
         0.000 1         0.000 1  20490610.466           0.000           0.000
         0.000           0.000
 92  6 13 15  6 36.0000000  0  5 16 28 18  2 19                      0.000042280
  -5322535.245 6  -2395392.654 5  23963704.832    23963725.518    23963723.989
     -2649.963       -2064.986
 -25042865.260 6  -5090301.136 6  23610174.936    23610196.551    23610197.031
      -818.384        -637.708
 -24750598.477 7 -18943535.514 8  20233453.382    20233475.297    20233473.648
       431.891         336.543
   -586445.186 5  -1846494.944 5  24516246.706    24516267.481    24516268.800
     -3655.290       -2848.217
         0.000 1         0.000 1  20490273.978           0.000           0.000
         0.000           0.000
 92  6 13 15  6 39.0000000  0  5 16 28 18  2 19                      0.000041940
  -5330482.936 6  -2401585.651 5  23962190.221    23962213.185    23962211.176
     -2648.537       -2063.843
 -25045317.635 6  -5092212.077 6  23609709.928    23609729.654    23609730.074
      -816.549        -636.327
 -24749300.409 7 -18942524.036 8  20233700.201    20233722.355    20233720.437
       433.434         337.763
   -597410.225 5  -1855039.130 6  24514163.688    24514181.405    24514182.425
     -3654.824       -2847.850
         0.000 1         0.000 1  20489937.162           0.000           0.000
         0.000           0.000
 92  6 13 15  6 42.0000000  0  5 16 28 18  2 19                      0.000041590
  -5338426.577 6  -2407775.504 5  23960682.745    23960701.122    23960699.413
     -2647.207       -2062.775
 -25047764.841 6  -5094118.999 6  23609243.871    23609264.197    23609264.496
      -814.931        -634.974
 -24747997.955 7 -18941509.133 8  20233947.200    20233970.164    20233968.305
       434.868         338.858
   -608374.375 5  -1863582.623 5  24512072.186    24512094.910    24512096.439
     -3654.665       -2847.790
         0.000 1         0.000 1  20489607.690           0.000           0.000
         0.000           0.000
 92  6 13 15  6 45.0000000  0  5 16 28 18  2 19                      0.000041250
  -5346366.021 6  -2413962.085 5  23959170.471    23959190.288    23959188.669
     -2645.725       -2061.640
 -25050206.806 6  -5096021.826 6  23608780.122    23608799.069    23608800.028
      -813.065        -633.559
 -24746691.065 8 -18940490.788 8  20234195.758    20234218.692    20234217.133
       436.413         340.028
   -619337.532 5  -1872125.343 6  24509984.461    24510007.935    24510010.003
     -3654.154       -2847.406
         0.000 1         0.000 1  20489267.515           0.000           0.000
         0.000           0.000
 92  6 13 15  6 48.0000000  0  5 16 28 18  2 19                      0.000040900
  -5354301.276 6  -2420145.402 5  23957654.241    23957680.413    23957678.584
     -2644.336       -2060.540
 -25052643.492 6  -5097920.547 6  23608315.114    23608335.889    23608336.039
      -811.364        -632.334
 -24745379.733 7 -18939468.970 8  20234448.423    20234468.209    20234466.560
       437.828         341.172
   -630299.694 5  -1880667.268 6  24507902.702    24507921.889    24507923.717
     -3653.915       -2847.217
         0.000 1         0.000 1  20488933.666           0.000           0.000
         0.000           0.000
 92  6 13 15  6 51.0000000  0  5 16 28 18  2 19                      0.000040560
  -5362232.264 6  -2426325.385 5  23956149.343    23956171.018    23956169.789
     -2643.016       -2059.488
 -25055074.924 6  -5099815.161 6  23607852.054    23607873.040    23607873.369
      -809.640        -630.890
 -24744063.873 8 -18938443.626 8  20234698.180    20234718.536    20234716.947
       439.331         342.364
   -641260.799 5  -1889208.406 5  24505813.718    24505836.562    24505838.391
     -3653.601       -2846.966
         0.000 1         0.000 1  20488599.038           0.000           0.000
         0.000           0.000
 92  6 13 15  6 54.0000000  0  5 16 28 18  2 19                      0.000040210
  -5370159.073 6  -2432502.121 5  23954642.676    23954663.242    23954660.813
     -2641.426       -2058.266
 -25057501.227 6  -5101705.791 6  23607393.072    23607411.659    23607411.749
      -807.815        -629.515
 -24742743.571 8 -18937414.821 8  20234947.997    20234969.822    20234967.933
       440.891         343.553
   -652221.037 5  -1897748.843 6  24503721.557    24503751.266    24503752.375
     -3653.310       -2846.554
         0.000 1         0.000 1  20488266.868           0.000           0.000
         0.000           0.000
 92  6 13 15  6 57.0000000  0  5 16 28 18  2 19                      0.000039870
  -5378081.314 6  -2438675.290 5  23953131.242    23953155.346    23953153.607
     -2639.965       -2057.134
 -25059921.990 6  -5103592.105 6  23606931.631    23606950.878    23606950.938
      -806.020        -628.015
 -24741418.477 8 -18936382.278 8  20235199.193    20235222.247    20235220.239
       442.462         344.781
   -663180.049 5  -1906288.331 6  24501646.273    24501665.400    24501667.349
     -3652.830       -2846.403
         0.000 1         0.000 1  20487932.090           0.000           0.000
         0.000           0.000
 92  6 13 15  7  0.0000000  0  5 16 28 18  2 19                      0.000039520
  -5385999.221 6  -2444845.083 5  23951627.423    23951648.319    23951646.790
     -2638.688       -2056.008
 -25062337.554 6  -5105474.359 6  23606471.780    23606491.086    23606491.056
      -804.295        -626.742
 -24740088.878 8 -18935346.227 8  20235452.578    20235474.882    20235473.083
       443.971         345.948
   -674138.135 5  -1914827.108 6  24499553.272    24499580.463    24499581.752
     -3652.496       -2846.147
         0.000 1         0.000 1  20487600.459           0.000           0.000
         0.000           0.000
 92  6 13 15  7  3.0000000  0  5 16 28 18  2 19                      0.000039180
  -5393912.935 6  -2451011.616 5  23950121.536    23950142.282    23950141.112
     -2637.233       -2054.950
 -25064748.026 6  -5107352.653 6  23606015.555    23606032.883    23606032.044
      -802.618        -625.443
 -24738754.849 8 -18934306.728 8  20235707.401    20235728.956    20235727.188
       445.416         347.075
   -685095.312 5  -1923365.164 6  24497470.734    24497495.437    24497496.066
     -3652.326       -2845.867
         0.000 1         0.000 1  20487262.833           0.000           0.000
         0.000           0.000
 92  6 13 15  7  6.0000000  0  5 16 28 18  2 19                      0.000038830
  -5401822.525 6  -2457174.918 5  23948617.297    23948637.563    23948636.004
     -2635.835       -2053.960
 -25067153.399 6  -5109226.968 6  23605555.404    23605574.651    23605574.381
      -800.989        -624.137
 -24737416.363 8 -18933263.752 8  20235962.255    20235983.870    20235982.011
       446.869         348.201
   -696051.615 5  -1931902.545 6  24495389.515    24495410.110    24495412.059
     -3652.113       -2845.730
         0.000 1         0.000 1  20486936.179           0.000           0.000
         0.000           0.000
 92  6 13 15  7  9.0000000  0  5 16 28 18  2 19                      0.000038490
  -5409728.136 6  -2463335.138 5  23947111.530    23947132.875    23947131.886
     -2634.571       -2052.903
 -25069553.703 6  -5111097.339 6  23605099.869    23605117.947    23605118.516
      -799.265        -622.774
 -24736073.550 8 -18932217.411 8  20236216.839    20236239.263    20236237.404
       448.321         349.333
   -707007.224 5  -1940439.376 5  24493302.390    24493325.624    24493327.542
     -3651.773       -2845.533
         0.000 1         0.000 1  20486602.031           0.000           0.000
         0.000           0.000
 92  6 13 15  7 12.0000000  0  5 16 28 18  2 19                      0.000038140
  -5417629.685 6  -2469492.187 5  23945607.201    23945629.476    23945628.516
     -2633.109       -2051.843
 -25071948.862 6  -5112963.695 6  23604640.917    23604662.322    23604662.202
      -797.487        -621.405
 -24734726.361 8 -18931167.648 8  20236473.131    20236495.616    20236493.697
       449.862         350.542
   -717962.073 5  -1948975.627 6  24491220.751    24491240.417    24491242.695
     -3651.468       -2845.281
         0.000 1         0.000 1  20486278.914           0.000           0.000
         0.000           0.000
 92  6 13 15  7 15.0000000  0  5 16 28 18  2 19                      0.000037800
  -5425526.957 6  -2475645.894 5  23944104.761    23944126.556    23944125.447
     -2631.643       -2050.622
 -25074338.663 6  -5114825.877 6  23604186.372    23604207.417    23604207.117
      -795.666        -619.968
 -24733374.581 8 -18930114.317 8  20236730.413    20236752.927    20236751.009
       451.404         351.767
   -728916.058 5  -1957511.184 5  24489132.306    24489156.140    24489158.328
     -3651.149       -2844.993
         0.000 1         0.000 1  20485940.389           0.000           0.000
         0.000           0.000
 92  6 13 15  7 18.0000000  0  5 16 28 18  2 19                      0.000037450
  -5433419.839 6  -2481796.191 5  23942604.750    23942624.506    23942623.906
     -2630.383       -2049.539
 -25076722.935 6  -5116683.752 6  23603730.777    23603753.561    23603753.801
      -793.896        -618.712
 -24732018.144 8 -18929057.354 8  20236988.115    20237010.719    20237009.190
       452.823         352.855
   -739868.969 5  -1966045.923 5  24487056.723    24487072.163    24487074.081
     -3650.920       -2844.833
         0.000 1         0.000 1  20485617.092           0.000           0.000
         0.000           0.000
 92  6 13 15  7 21.0000000  0  5 16 28 18  2 19                      0.000037110
  -5441308.677 6  -2487943.337 5  23941102.460    23941123.505    23941122.995
     -2628.865       -2048.482
 -25079101.863 6  -5118537.456 6  23603278.810    23603300.875    23603300.875
      -791.987        -617.150
 -24730657.295 8 -18927996.952 8  20237246.716    20237270.069    20237268.151
       454.437         354.094
   -750820.954 5  -1974579.932 6  24484969.209    24484988.185    24484989.654
     -3650.482       -2844.491
         0.000 1         0.000 1  20485282.044           0.000           0.000
         0.000           0.000
 92  6 13 15  7 24.0000000  0  5 16 28 18  2 19                      0.000036760
  -5449193.125 6  -2494087.058 5  23939601.968    23939622.834    23939622.534
     -2627.393       -2047.339
 -25081475.113 6  -5120386.744 6  23602827.742    23602848.878    23602849.237
      -790.203        -615.729
 -24729291.628 8 -18926932.797 8  20237508.315    20237529.690    20237527.921
       455.993         355.326
   -761771.691 5  -1983112.979 5  24482881.904    24482904.778    24482906.157
     -3650.155       -2844.196
         0.000 1         0.000 1  20484955.211           0.000           0.000
         0.000           0.000
 92  6 13 15  7 27.0000000  0  5 16 28 18  2 19                      0.000036420
  -5457073.462 6  -2500227.575 5  23938102.676    23938123.362    23938123.002
     -2626.128       -2046.261
 -25083842.981 6  -5122231.845 6  23602379.373    23602398.589    23602398.709
      -788.410        -614.287
 -24727921.359 8 -18925865.056 8  20237766.076    20237790.539    20237788.590
       457.549         356.519
   -772721.497 5  -1991645.299 6  24480806.021    24480821.520    24480822.869
     -3649.726       -2843.969
         0.000 1         0.000 1  20484628.767           0.000           0.000
         0.000           0.000
 92  6 13 15  7 30.0000000  0  5 16 28 18  2 19                      0.000036070
  -5464949.607 6  -2506364.829 5  23936604.524    23936624.700    23936623.830
     -2624.661       -2045.295
 -25086205.335 6  -5124072.640 6  23601926.986    23601948.901    23601948.901
      -786.532        -612.895
 -24726546.341 8 -18924793.615 8  20238027.255    20238052.078    20238050.279
       459.112         357.738
   -783670.291 5  -2000176.819 6  24478718.236    24478738.382    24478738.892
     -3649.444       -2843.723
         0.000 1         0.000 1  20484298.215           0.000           0.000
         0.000           0.000
 92  6 13 15  7 33.0000000  0  5 16 28 18  2 19                      0.000035730
  -5472821.604 6  -2512498.859 5  23935105.891    23935126.517    23935126.517
     -2623.341       -2044.145
 -25088562.305 6  -5125909.243 6  23601480.475    23601500.201    23601500.771
      -784.708        -611.493
 -24725166.641 8 -18923718.532 8  20238290.413    20238314.636    20238312.868
       460.649         358.980
   -794618.123 5  -2008707.592 6  24476641.843    24476654.435    24476654.645
     -3649.079       -2843.419
         0.000 1         0.000 1  20483971.741           0.000           0.000
         0.000           0.000
 92  6 13 15  7 36.0000000  0  5 16 28 18  2 19                      0.000035390
  -5480689.568 6  -2518629.735 5  23933605.220    23933629.593    23933629.233
     -2621.912       -2043.198
 -25090914.052 6  -5127741.775 6  23601029.108    23601052.701    23601052.791
      -783.060        -610.167
 -24723782.422 8 -18922639.892 8  20238555.879    20238577.884    20238576.265
       462.125         360.114
   -805565.130 5  -2017237.721 6  24474554.598    24474571.866    24474572.106
     -3648.926       -2843.275
         0.000 1         0.000 1  20483645.627           0.000           0.000
         0.000           0.000
 92  6 13 15  7 39.0000000  0  5 16 28 18  2 19                      0.000035040
  -5488553.497 6  -2524757.469 5  23932112.673    23932133.329    23932132.699
     -2620.611       -2042.027
 -25093260.663 6  -5129570.300 6  23600585.535    23600605.980    23600606.640
      -781.260        -608.838
 -24722393.723 8 -18921557.815 8  20238820.236    20238842.301    20238840.652
       463.696         361.337
   -816511.412 5  -2025767.287 6  24472469.392    24472489.208    24472489.238
     -3648.612       -2843.126
         0.000 1         0.000 1  20483318.584           0.000           0.000
         0.000           0.000
 92  6 13 15  7 42.0000000  0  5 16 28 18  2 19                      0.000034700
  -5496413.109 6  -2530881.827 5  23930618.118    23930637.275    23930637.155
     -2619.139       -2040.829
 -25095601.904 6  -5131394.650 6  23600140.283    23600160.699    23600161.148
      -779.504        -607.451
 -24721000.302 7 -18920472.037 8  20239083.094    20239107.228    20239105.579
       465.285         362.563
   -827456.742 5  -2034296.106 6  24470384.275    24470404.961    24470406.520
     -3648.304       -2842.738
         0.000 1         0.000 1  20482994.088           0.000           0.000
         0.000           0.000
 92  6 13 15  7 45.0000000  0  5 16 28 18  2 19                      0.000034350
  -5504268.322 6  -2537002.776 5  23929121.974    23929142.689    23929142.719
     -2617.663       -2039.744
 -25097937.698 6  -5133214.748 6  23599690.714    23599715.927    23599717.156
      -777.694        -606.014
 -24719602.098 8 -18919382.530 8  20239352.158    20239373.563    20239371.764
       466.815         363.778
   -838401.058 5  -2042824.147 5  24468299.339    24468323.712    24468323.232
     -3648.067       -2842.569
         0.000 1         0.000 1  20482667.255           0.000           0.000
         0.000           0.000
 92  6 13 15  7 48.0000000  0  5 16 28 18  2 19                      0.000034010
  -5512119.264 6  -2543120.404 5  23927628.737    23927648.194    23927648.853
     -2616.334       -2038.642
 -25100268.190 6  -5135030.718 6  23599249.270    23599272.414    23599273.103
      -775.983        -604.703
 -24718199.260 7 -18918289.407 8  20239615.016    20239640.349    20239638.730
       468.400         364.975
   -849344.598 5  -2051351.569 5  24466222.017    24466240.214    24466240.784
     -3647.743       -2842.413
         0.000 1         0.000 1  20482346.207           0.000           0.000
         0.000           0.000
 92  6 13 15  7 51.0000000  0  5 16 28 18  2 19                      0.000033660
  -5519965.828 6  -2549234.601 6  23926134.752    23926155.257    23926155.287
     -2614.745       -2037.459
 -25102593.283 6  -5136842.474 6  23598807.496    23598830.220    23598830.699
      -774.059        -603.220
 -24716791.613 7 -18917192.540 8  20239886.418    20239908.483    20239906.564
       470.098         366.276
   -860287.247 5  -2059878.312 6  24464143.736    24464159.385    24464158.545
     -3647.299       -2842.064
         0.000 1         0.000 1  20482019.193           0.000           0.000
         0.000           0.000
 92  6 13 15  7 54.0000000  0  5 16 28 18  2 19                      0.000033320
  -5527807.793 6  -2555345.220 6  23924642.235    23924662.861    23924663.790
     -2613.225       -2036.288
 -25104912.783 6  -5138649.873 6  23598364.612    23598388.596    23598388.925
      -772.228        -601.790
 -24715378.902 8 -18916091.731 8  20240152.004    20240177.037    20240175.388
       471.760         367.607
   -871228.848 5  -2068404.227 6  24462056.910    24462076.757    24462076.307
     -3647.032       -2841.803
         0.000 1         0.000 1  20481694.668           0.000           0.000
         0.000           0.000
 92  6 13 15  7 57.0000000  0  5 16 28 18  2 19                      0.000032970
  -5535645.318 6  -2561452.380 6  23923150.048    23923171.423    23923172.083
     -2611.803       -2035.147
 -25107226.864 6  -5140453.065 6  23597924.067    23597948.110    23597949.280
      -770.521        -600.388
 -24713961.361 7 -18914987.157 8  20240422.567    20240446.580    20240444.932
       473.287         368.768
   -882169.656 5  -2076929.521 6  24459976.351    24459994.398    24459994.188
     -3646.857       -2841.723
         0.000 1         0.000 1  20481375.839           0.000           0.000
         0.000           0.000
 92  6 13 15  8  0.0000000  0  5 16 28 18  2 19                      0.000032630
  -5543478.533 6  -2567556.185 6  23921656.002    23921681.095    23921680.885
     -2610.385       -2034.093
 -25109535.600 6  -5142252.079 6  23597486.070    23597509.184    23597509.694
      -768.639        -598.978
 -24712539.063 7 -18913878.870 8  20240695.708    20240717.293    20240715.494
       474.859         370.027
   -893109.730 5  -2085454.248 5  24457900.528    24457913.119    24457912.999
     -3646.567       -2841.470
         0.000 1         0.000 1  20481050.624           0.000           0.000
         0.000           0.000
 92  6 13 15  8  3.0000000  0  5 16 28 18  2 19                      0.000032290
  -5551307.456 6  -2573656.641 6  23920168.192    23920190.796    23920191.576
     -2608.909       -2032.981
 -25111839.076 6  -5144047.001 6  23597049.872    23597070.648    23597071.218
      -766.952        -597.591
 -24711112.130 7 -18912766.977 8  20240965.791    20240988.875    20240986.956
       476.382         371.211
   -904049.079 5  -2093978.415 5  24455811.934    24455831.600    24455830.761
     -3646.287       -2841.320
         0.000 1         0.000 1  20480728.077           0.000           0.000
         0.000           0.000
 92  6 13 15  8  6.0000000  0  5 16 28 18  2 19                      0.000031940
  -5559131.952 6  -2579753.654 6  23918678.793    23918701.967    23918703.136
     -2607.381       -2031.729
 -25114137.219 6  -5145837.765 6  23596612.235    23596633.700    23596634.000
      -765.132        -596.149
 -24709680.506 7 -18911651.429 8  20241238.152    20241261.117    20241259.678
       478.052         372.523
   -914987.586 5  -2102501.919 5  24453733.712    24453749.601    24453748.672
     -3645.868       -2840.990
         0.000 1         0.000 1  20480407.869           0.000           0.000
         0.000           0.000
 92  6 13 15  8  9.0000000  0  5 16 28 18  2 19                      0.000031600
  -5566951.691 6  -2585846.948 6  23917192.212    23917213.737    23917214.577
     -2605.862       -2030.580
 -25116429.769 6  -5147624.163 6  23596177.176    23596196.873    23596198.042
      -763.330        -594.760
 -24708243.917 7 -18910532.012 8  20241511.893    20241534.737    20241533.118
       479.621         373.749
   -925924.998 5  -2111024.564 5  24451649.555    24451668.142    24451667.783
     -3645.704       -2840.844
         0.000 1         0.000 1  20480087.001           0.000           0.000
         0.000           0.000
 92  6 13 15  8 12.0000000  0  5 16 28 18  2 19                      0.000031250
  -5574767.113 6  -2591936.896 6  23915704.282    23915726.047    23915727.846
     -2604.409       -2029.402
 -25118717.165 6  -5149406.550 6  23595740.948    23595761.814    23595761.934
      -761.606        -593.436
 -24706802.780 7 -18909409.050 8  20241788.691    20241808.568    20241807.278
       481.142         374.947
   -936861.672 5  -2119546.651 5  24449571.124    24449587.433    24449586.863
     -3645.448       -2840.520
         0.000 1         0.000 1  20479767.092           0.000           0.000
         0.000           0.000
 92  6 13 15  8 15.0000000  0  5 16 28 18  2 19                      0.000030910
  -5582578.127 6  -2598023.399 6  23914219.111    23914240.306    23914241.355
     -2602.863       -2028.207
 -25120999.256 6  -5151184.812 6  23595304.960    23595327.475    23595328.104
      -759.743        -592.040
 -24705356.927 7 -18908282.409 8  20242061.562    20242084.077    20242082.488
       482.768         376.191
   -947797.507 5  -2128068.073 5  24447494.192    24447506.334    24447505.614
     -3644.963       -2840.310
         0.000 1         0.000 1  20479446.224           0.000           0.000
         0.000           0.000
 92  6 13 15  8 18.0000000  0  5 16 28 18  2 19                      0.000030560
  -5590384.573 6  -2604106.342 6  23912732.260    23912754.684    23912755.614
     -2601.456       -2027.042
 -25123275.880 6  -5152958.799 6  23594876.797    23594894.544    23594894.604
      -758.002        -590.596
 -24703906.229 7 -18907151.998 8  20242337.401    20242359.946    20242358.327
       484.342         377.404
   -958732.395 5  -2136588.758 5  24445405.088    24445425.714    24445425.054
     -3644.819       -2840.152
         0.000 1         0.000 1  20479127.695           0.000           0.000
         0.000           0.000
 92  6 13 15  8 21.0000000  0  5 16 28 18  2 19                      0.000030220
  -5598186.560 6  -2610185.802 6  23911249.367    23911270.172    23911271.101
     -2599.846       -2025.874
 -25125547.206 6  -5154728.676 6  23594440.689    23594462.244    23594462.124
      -756.117        -589.163
 -24702450.912 7 -18906017.987 8  20242615.309    20242636.804    20242635.485
       485.925         378.668
   -969666.527 5  -2145108.837 5  24443325.848    24443344.225    24443343.955
     -3644.545       -2839.858
         0.000 1         0.000 1  20478807.696           0.000           0.000
         0.000           0.000
 92  6 13 15  8 24.0000000  0  5 16 28 18  2 19                      0.000029880
  -5605983.788 6  -2616261.566 6  23909766.503    23909786.110    23909787.309
     -2598.349       -2024.658
 -25127812.928 6  -5156494.166 6  23594013.274    23594031.082    23594031.232
      -754.370        -587.870
 -24700990.705 7 -18904880.166 8  20242892.767    20242914.772    20242913.333
       487.470         379.863
   -980599.601 5  -2153628.104 5  24441243.070    24441263.785    24441263.575
     -3644.193       -2839.704
         0.000 1         0.000 1  20478490.216           0.000           0.000
         0.000           0.000
 92  6 13 15  8 27.0000000  0  5 16 28 18  2 19                      0.000029530
  -5613776.651 6  -2622333.925 6  23908282.530    23908303.276    23908304.595
     -2596.828       -2023.459
 -25130073.435 6  -5158255.601 6  23593577.796    23593601.000    23593601.090
      -752.652        -586.409
 -24699525.920 7 -18903738.775 8  20243172.114    20243193.459    20243192.260
       489.051         381.060
   -991531.938 5  -2162146.806 5  24439170.364    24439184.395    24439183.645
     -3643.905       -2839.510
         0.000 1         0.000 1  20478171.867           0.000           0.000
         0.000           0.000
 92  6 13 15  8 30.0000000  0  5 16 28 18  2 19                      0.000029190
  -5621565.077 6  -2628402.825 6  23906799.967    23906821.132    23906822.002
     -2595.427       -2022.394
 -25132328.755 6  -5160012.996 6  23593151.821    23593171.727    23593172.087
      -750.898        -585.115
 -24698056.506 8 -18902593.777 8  20243449.991    20243473.285    20243471.996
       490.604         382.294
  -1002463.502 5  -2170664.904 5  24437083.689    24437103.685    24437103.265
     -3643.737       -2839.186
         0.000 1         0.000 1  20477854.296           0.000           0.000
         0.000           0.000
 92  6 13 15  8 33.0000000  0  5 16 28 18  2 19                      0.000028840
  -5629348.910 6  -2634468.152 6  23905320.911    23905340.337    23905341.207
     -2593.881       -2021.236
 -25134578.733 6  -5161766.227 6  23592723.178    23592743.653    23592743.713
      -749.163        -583.764
 -24696582.274 7 -18901445.025 8  20243734.314    20243753.891    20243752.302
       492.212         383.489
  -1013394.043 5  -2179182.189 6  24435000.461    24435022.946    24435023.275
     -3643.388       -2839.031
         0.000 1         0.000 1  20477539.724           0.000           0.000
         0.000           0.000
 92  6 13 15  8 36.0000000  0  5 16 28 18  2 19                      0.000028500
  -5637128.389 6  -2640530.081 6  23903837.328    23903859.602    23903860.981
     -2592.405       -2019.975
 -25136823.677 6  -5163515.531 6  23592295.314    23592316.479    23592316.479
      -747.434        -582.398
 -24695103.373 8 -18900292.633 8  20244014.440    20244035.306    20244033.807
       493.789         384.762
  -1024323.814 5  -2187698.893 5  24432926.347    24432943.765    24432943.915
     -3643.097       -2838.771
         0.000 1         0.000 1  20477224.133           0.000           0.000
         0.000           0.000
 92  6 13 15  8 39.0000000  0  5 16 28 18  2 19                      0.000028150
  -5644903.421 6  -2646588.539 6  23902360.580    23902380.486    23902381.296
     -2590.923       -2018.891
 -25139063.457 6  -5165260.817 6  23591872.546    23591890.234    23591889.994
      -745.740        -581.077
 -24693619.672 7 -18899136.510 8  20244296.725    20244317.621    20244316.092
       495.343         386.001
  -1035252.682 5  -2196214.883 5  24430840.181    24430863.445    24430864.015
     -3642.855       -2838.561
         0.000 1         0.000 1  20476905.124           0.000           0.000
         0.000           0.000
 92  6 13 15  8 42.0000000  0  5 16 28 18  2 19                      0.000027810
  -5652673.887 6  -2652643.440 6  23900880.565    23900901.700    23900902.450
     -2589.394       -2017.797
 -25141297.923 6  -5167001.967 6  23591447.441    23591465.338    23591465.578
      -743.928        -579.695
 -24692131.106 7 -18897976.589 8  20244581.408    20244601.194    20244599.455
       497.013         387.272
  -1046180.514 5  -2204730.070 5  24428767.086    24428783.815    24428784.055
     -3642.390       -2838.252
         0.000 1         0.000 1  20476596.697           0.000           0.000
         0.000           0.000
 92  6 13 15  8 45.0000000  0  5 16 28 18  2 19                      0.000027460
  -5660439.867 6  -2658694.863 6  23899404.926    23899423.903    23899425.072
     -2587.915       -2016.613
 -25143527.234 6  -5168739.092 6  23591021.016    23591041.222    23591040.862
      -742.202        -578.323
 -24690637.820 8 -18896812.995 8  20244863.992    20244885.367    20244883.629
       498.592         388.522
  -1057107.433 5  -2213244.550 5  24426682.989    24426704.275    24426705.534
     -3642.120       -2838.016
         0.000 1         0.000 1  20476276.609           0.000           0.000
         0.000           0.000
 92  6 13 15  8 48.0000000  0  5 16 28 18  2 19                      0.000027120
  -5668201.327 6  -2664742.744 6  23897928.568    23897947.305    23897948.235
     -2586.445       -2015.426
 -25145751.268 6  -5170472.100 6  23590598.009    23590617.765    23590617.825
      -740.488        -577.016
 -24689139.676 8 -18895645.613 8  20245148.795    20245170.230    20245168.671
       500.158         389.741
  -1068033.283 5  -2221758.184 5  24424605.787    24424625.034    24424626.653
     -3641.766       -2837.796
         0.000 1         0.000 1  20475968.062           0.000           0.000
         0.000           0.000
 92  6 13 15  8 51.0000000  0  5 16 28 18  2 19                      0.000026770
  -5675958.401 6  -2670787.216 6  23896452.001    23896471.097    23896471.577
     -2585.006       -2014.267
 -25147970.054 6  -5172201.027 6  23590179.409    23590195.537    23590195.507
      -738.732        -575.642
 -24687636.687 8 -18894474.446 8  20245432.459    20245456.502    20245454.523
       501.786         391.025
  -1078958.126 5  -2230271.042 5  24422526.607    24422545.584    24422547.412
     -3641.454       -2837.541
         0.000 1         0.000 1  20475650.672           0.000           0.000
         0.000           0.000
 92  6 13 15  8 54.0000000  0  5 16 28 18  2 19                      0.000026430
  -5683711.049 6  -2676828.227 6  23894973.694    23894995.819    23894996.718
     -2583.490       -2013.064
 -25150183.593 6  -5173925.868 6  23589758.080    23589774.239    23589774.509
      -737.016        -574.238
 -24686128.747 8 -18893299.431 8  20245722.148    20245743.314    20245741.755
       503.414         392.290
  -1089881.967 5  -2238783.112 5  24420446.407    24420466.643    24420468.322
     -3641.210       -2837.207
         0.000 1         0.000 1  20475344.284           0.000           0.000
         0.000           0.000
 92  6 13 15  8 57.0000000  0  5 16 28 18  2 19                      0.000026080
  -5691459.208 6  -2682865.749 6  23893502.552    23893521.619    23893521.949
     -2581.983       -2011.890
 -25152391.812 6  -5175646.553 6  23589337.831    23589354.080    23589354.500
      -735.217        -572.828
 -24684615.816 8 -18892120.527 8  20246011.328    20246030.994    20246029.645
       505.117         393.606
  -1100804.715 5  -2247294.340 5  24418364.948    24418387.882    24418390.010
     -3640.772       -2836.923
         0.000 1         0.000 1  20475031.241           0.000           0.000
         0.000           0.000
 92  6 13 15  9  0.0000000  0  5 16 28 18  2 19                      0.000025740
  -5699202.990 6  -2688899.862 6  23892031.141    23892048.199    23892048.769
     -2580.510       -2010.785
 -25154594.793 6  -5177363.166 6  23588917.492    23588934.700    23588935.090
      -733.415        -571.513
 -24683098.023 8 -18890937.828 8  20246298.139    20246319.964    20246318.315
       506.749         394.900
  -1111726.455 5  -2255804.780 5  24416288.825    24416310.320    24416311.459
     -3640.325       -2836.618
         0.000 1         0.000 1  20474718.767           0.000           0.000
         0.000           0.000
 92  6 13 15  9  3.0000000  0  5 16 28 18  2 19                      0.000025390
  -5706942.196 6  -2694930.409 6  23890555.353    23890575.739    23890575.888
     -2579.087       -2009.637
 -25156792.440 6  -5179075.616 6  23588497.783    23588516.520    23588516.880
      -731.743        -570.155
 -24681575.255 8 -18889751.259 8  20246588.698    20246609.534    20246608.035
       508.322         396.071
  -1122647.147 5  -2264314.399 5  24414213.032    24414231.619    24414233.388
     -3640.120       -2836.480
         0.000 1         0.000 1  20474407.343           0.000           0.000
         0.000           0.000
 92  6 13 15  9  6.0000000  0  5 16 28 18  2 19                      0.000025050
  -5714677.046 6  -2700957.570 6  23889083.252    23889104.087    23889103.967
     -2577.596       -2008.502
 -25158985.066 6  -5180784.154 6  23588082.240    23588099.179    23588099.688
      -729.998        -568.843
 -24680047.764 8 -18888561.023 8  20246877.069    20246900.512    20246898.924
       509.963         397.342
  -1133567.141 5  -2272823.471 5  24412129.624    24412153.398    24412155.436
     -3639.857       -2836.273
         0.000 1         0.000 1  20474098.916           0.000           0.000
         0.000           0.000
 92  6 13 15  9  9.0000000  0  5 16 28 18  2 19                      0.000024700
  -5722407.231 6  -2706981.081 6  23887608.303    23887633.036    23887632.976
     -2575.995       -2007.265
 -25161172.277 6  -5182488.480 6  23587664.300    23587682.827    23587683.606
      -728.172        -567.388
 -24678515.240 8 -18887366.835 8  20247168.827    20247192.001    20247190.262
       511.633         398.697
  -1144486.083 5  -2281331.740 5  24410051.163    24410076.196    24410078.025
     -3639.534       -2835.960
         0.000 1         0.000 1  20473788.361           0.000           0.000
         0.000           0.000
 92  6 13 15  9 12.0000000  0  5 16 28 18  2 19                      0.000024360
  -5730132.842 6  -2713001.024 6  23886142.797    23886163.033    23886163.153
     -2574.326       -2005.978
 -25163354.150 6  -5184188.638 6  23587246.509    23587267.914    23587267.944
      -726.334        -565.959
 -24676977.736 8 -18886168.779 8  20247460.735    20247484.838    20247482.859
       513.346         400.033
  -1155404.181 5  -2289839.331 5  24407976.030    24407997.615    24408000.223
     -3639.152       -2835.642
         0.000 1         0.000 1  20473482.333           0.000           0.000
         0.000           0.000
 92  6 13 15  9 15.0000000  0  5 16 28 18  2 19                      0.000024010
  -5737853.657 6  -2719017.243 6  23884672.945    23884693.871    23884693.661
     -2572.942       -2004.891
 -25165530.392 6  -5185884.420 6  23586830.847    23586853.541    23586854.111
      -724.561        -564.617
 -24675435.135 8 -18884966.758 8  20247754.801    20247778.185    20247776.296
       514.951         401.256
  -1166321.195 5  -2298346.089 5  24405891.483    24405920.413    24405922.511
     -3638.869       -2835.484
         0.000 1         0.000 1  20473169.470           0.000           0.000
         0.000           0.000
 92  6 13 15  9 18.0000000  0  5 16 28 18  2 19                      0.000023660
  -5745570.078 6  -2725030.028 6  23883206.960    23883225.487    23883225.307
     -2571.338       -2003.676
 -25167701.356 6  -5187576.076 6  23586418.422    23586440.697    23586440.937
      -722.727        -563.205
 -24673887.815 8 -18883761.054 8  20248050.846    20248072.971    20248070.962
       516.630         402.540
  -1177237.459 5  -2306852.258 5  24403820.367    24403842.611    24403845.190
     -3638.630       -2835.204
         0.000 1         0.000 1  20472865.420           0.000           0.000
         0.000           0.000
 92  6 13 15  9 21.0000000  0  5 16 28 18  2 19                      0.000023320
  -5753281.914 6  -2731039.249 6  23881735.848    23881758.243    23881757.493
     -2569.849       -2002.521
 -25169866.810 6  -5189263.446 6  23586007.617    23586028.452    23586028.542
      -720.891        -561.746
 -24672335.545 8 -18882551.498 8  20248345.692    20248368.446    20248366.228
       518.233         403.819
  -1188152.690 5  -2315357.638 5  24401744.304    24401765.799    24401767.628
     -3638.254       -2835.016
         0.000 1         0.000 1  20472553.396           0.000           0.000
         0.000           0.000
 92  6 13 15  9 24.0000000  0  5 16 28 18  2 19                      0.000022970
  -5760989.347 6  -2737045.026 6  23880269.324    23880291.508    23880291.448
     -2568.381       -2001.378
 -25172026.918 6  -5190946.647 6  23585592.674    23585617.737    23585617.946
      -719.117        -560.287
 -24670778.461 8 -18881338.190 8  20248643.776    20248664.641    20248662.603
       519.860         405.083
  -1199067.066 5  -2323862.328 5  24399669.141    24399689.077    24399691.115
     -3637.917       -2834.762
         0.000 1         0.000 1  20472249.587           0.000           0.000
         0.000           0.000
 92  6 13 15  9 27.0000000  0  5 16 28 18  2 19                      0.000022630
  -5768692.047 6  -2743047.124 6  23878804.717    23878825.883    23878825.283
     -2566.739       -2000.085
 -25174181.391 6  -5192625.467 6  23585184.716    23585207.651    23585208.070
      -717.227        -558.867
 -24669216.254 8 -18880120.889 8  20248941.949    20248962.125    20248959.877
       521.589         406.449
  -1209980.326 5  -2332366.169 5  24397585.883    24397612.264    24397614.933
     -3637.535       -2834.377
         0.000 1         0.000 1  20471944.997           0.000           0.000
         0.000           0.000
 92  6 13 15  9 30.0000000  0  5 16 28 18  2 19                      0.000022280
  -5776389.796 6  -2749045.368 6  23877338.972    23877360.497    23877360.557
     -2565.039       -1998.835
 -25176330.129 6  -5194299.802 6  23584776.609    23584798.404    23584798.434
      -715.233        -557.368
 -24667648.806 8 -18878899.505 8  20249238.714    20249260.389    20249257.990
       523.431         407.851
  -1220892.298 5  -2340869.002 5  24395515.936    24395535.422    24395537.911
     -3637.047       -2834.102
         0.000 1         0.000 1  20471634.592           0.000           0.000
         0.000           0.000
 92  6 13 15  9 33.0000000  0  5 16 28 18  2 19                      0.000021940
  -5784082.679 6  -2755039.824 6  23875878.024    23875897.090    23875896.881
     -2563.648       -1997.575
 -25178473.302 6  -5195969.806 6  23584368.471    23584390.596    23584391.046
      -713.535        -555.998
 -24666076.164 8 -18877674.069 8  20249539.795    20249559.522    20249557.333
       525.010         409.101
  -1231803.041 5  -2349370.864 5  24393432.678    24393459.779    24393461.938
     -3636.780       -2833.808
         0.000 1         0.000 1  20471325.326           0.000           0.000
         0.000           0.000
 92  6 13 15  9 36.0000000  0  5 16 28 18  2 19                      0.000021590
  -5791771.168 6  -2761030.836 6  23874415.006    23874433.803    23874433.893
     -2562.014       -1996.449
 -25180611.330 6  -5197635.812 6  23583966.989    23583984.048    23583984.227
      -711.769        -554.647
 -24664498.749 8 -18876444.918 8  20249839.288    20249859.734    20249857.605
       526.601         410.361
  -1242712.860 5  -2357872.024 5  24391358.324    24391382.937    24391385.425
     -3636.372       -2833.522
         0.000 1         0.000 1  20471023.555           0.000           0.000
         0.000           0.000
 92  6 13 15  9 39.0000000  0  5 16 28 18  2 19                      0.000021250
  -5799455.092 6  -2767018.300 6  23872952.019    23872971.236    23872971.596
     -2560.543       -1995.184
 -25182744.109 6  -5199297.715 6  23583559.242    23583577.889    23583578.368
      -710.002        -553.251
 -24662916.401 8 -18875211.918 8  20250140.429    20250160.965    20250158.567
       528.300         411.694
  -1253621.500 5  -2366372.245 5  24389285.259    24389307.744    24389310.472
     -3635.992       -2833.236
         0.000 1         0.000 1  20470719.446           0.000           0.000
         0.000           0.000
 92  6 13 15  9 42.0000000  0  5 16 28 18  2 19                      0.000020900
  -5807134.397 6  -2773002.174 6  23871487.773    23871510.317    23871510.047
     -2558.969       -1994.058
 -25184871.594 6  -5200955.495 6  23583152.843    23583173.289    23583173.319
      -708.275        -551.917
 -24661328.977 8 -18873974.970 8  20250441.061    20250463.096    20250460.608
       529.975         412.964
  -1264528.895 5  -2374871.519 5  24387206.798    24387231.831    24387234.469
     -3635.513       -2832.859
         0.000 1         0.000 1  20470420.523           0.000           0.000
         0.000           0.000
 92  6 13 15  9 45.0000000  0  5 16 28 18  2 19                      0.000020560
  -5814809.221 6  -2778982.553 6  23870026.584    23870049.489    23870049.848
     -2557.511       -1992.852
 -25186993.955 6  -5202609.287 6  23582750.581    23582769.169    23582770.488
      -706.540        -550.505
 -24659736.611 8 -18872734.167 8  20250746.160    20250766.126    20250763.488
       531.643         414.262
  -1275435.287 5  -2383369.992 5  24385139.159    24385156.098    24385158.196
     -3635.277       -2832.699
         0.000 1         0.000 1  20470114.075           0.000           0.000
         0.000           0.000
 92  6 13 15  9 48.0000000  0  5 16 28 18  2 19                      0.000020210
  -5822479.485 6  -2784959.377 6  23868570.522    23868590.279    23868589.979
     -2556.149       -1991.739
 -25189111.056 6  -5204258.975 6  23582347.331    23582366.367    23582367.267
      -704.812        -549.274
 -24658139.270 8 -18871489.484 8  20251048.951    20251069.546    20251067.598
       533.226         415.488
  -1286340.631 5  -2391867.655 5  24383065.825    24383082.074    24383083.962
     -3634.995       -2832.527
         0.000 1         0.000 1  20469812.574           0.000           0.000
         0.000           0.000
 92  6 13 15  9 51.0000000  0  5 16 28 18  2 19                      0.000019870
  -5830145.352 6  -2790932.774 6  23867113.351    23867131.009    23867131.159
     -2554.533       -1990.555
 -25191223.085 6  -5205904.715 6  23581942.611    23581964.676    23581964.945
      -703.166        -547.979
 -24656537.225 8 -18870241.145 8  20251353.180    20251374.735    20251372.606
       534.845         416.749
  -1297245.055 5  -2400364.601 5  24380986.164    24381006.161    24381008.529
     -3634.587       -2832.200
         0.000 1         0.000 1  20469511.552           0.000           0.000
         0.000           0.000
 92  6 13 15  9 54.0000000  0  5 16 28 18  2 19                      0.000019520
  -5837806.720 6  -2796902.666 6  23865653.872    23865672.609    23865673.388
     -2553.057       -1989.436
 -25193329.935 6  -5207546.416 6  23581541.069    23581563.613    23581564.363
      -701.381        -546.486
 -24654930.385 8 -18868989.062 8  20251661.606    20251680.673    20251678.605
       536.395         417.982
  -1308148.326 5  -2408860.655 5  24378916.577    24378932.406    24378933.426
     -3634.245       -2831.863
         0.000 1         0.000 1  20469211.130           0.000           0.000
         0.000           0.000
 92  6 13 15  9 57.0000000  0  5 16 28 18  2 19                      0.000019180
  -5845463.759 6  -2802869.191 6  23864194.062    23864215.677    23864216.547
     -2551.597       -1988.234
 -25195431.668 6  -5209184.130 6  23581143.244    23581163.660    23581164.170
      -699.657        -545.194
 -24653318.808 7 -18867733.286 8  20251965.536    20251987.421    20251985.352
       538.034         419.215
  -1319050.525 5  -2417355.868 5  24376842.343    24376858.682    24376858.172
     -3633.801       -2831.638
         0.000 1         0.000 1  20468917.243           0.000           0.000
         0.000           0.000
 92  6 13 15 10  0.0000000  0  5 16 28 18  2 19                      0.000018830
  -5853116.300 6  -2808832.201 6  23862739.139    23862759.166    23862759.945
     -2550.081       -1987.047
 -25197528.067 6  -5210817.692 6  23580743.351    23580764.666    23580765.506
      -697.950        -543.846
 -24651702.302 8 -18866473.675 8  20252275.102    20252294.618    20252292.670
       539.644         420.511
  -1329951.468 5  -2425850.092 5  24374766.460    24374784.148    24374784.238
     -3633.385       -2831.226
         0.000 1         0.000 1  20468610.556           0.000           0.000
         0.000           0.000
 92  6 13 15 10  3.0000000  0  5 16 28 18  2 19                      0.000018490
  -5860764.480 6  -2814791.814 6  23861283.857    23861303.943    23861304.932
     -2548.635       -1985.995
 -25199619.242 6  -5212447.185 6  23580343.788    23580366.662    23580367.561
      -696.124        -542.519
 -24650080.990 8 -18865210.318 8  20252582.569    20252603.674    20252601.336
       541.252         421.788
  -1340851.237 5  -2434343.422 5  24372691.357    24372710.364    24372710.484
     -3633.082       -2830.826
         0.000 1         0.000 1  20468305.307           0.000           0.000
         0.000           0.000
 92  6 13 15 10  6.0000000  0  5 16 28 18  2 19                      0.000018140
  -5868408.323 6  -2820748.057 6  23859831.392    23859849.590    23859850.519
     -2547.118       -1984.869
 -25201705.242 6  -5214072.639 6  23579945.244    23579969.647    23579970.066
      -694.374        -541.064
 -24648454.794 7 -18863943.151 8  20252891.775    20252912.760    20252910.812
       542.947         423.077
  -1351749.819 5  -2442835.811 5  24370618.622    24370636.070    24370636.220
     -3632.540       -2830.592
         0.000 1         0.000 1  20468011.001           0.000           0.000
         0.000           0.000
 92  6 13 15 10  9.0000000  0  5 16 28 18  2 19                      0.000017790
  -5876047.650 6  -2826700.769 6  23858376.380    23858395.477    23858397.065
     -2545.726       -1983.664
 -25203785.867 6  -5215693.901 6  23579547.359    23579573.981    23579574.011
      -692.676        -539.789
 -24646823.540 8 -18862672.047 8  20253203.709    20253223.045    20253221.067
       544.562         424.293
  -1362647.043 5  -2451327.145 5  24368539.801    24368562.645    24368562.705
     -3632.208       -2830.286
         0.000 1         0.000 1  20467708.660           0.000           0.000
         0.000           0.000
 92  6 13 15 10 12.0000000  0  5 16 28 18  2 19                      0.000017450
  -5883682.727 6  -2832650.184 6  23856921.337    23856942.862    23856943.552
     -2544.276       -1982.569
 -25205861.508 6  -5217311.294 6  23579155.260    23579178.764    23579178.974
      -690.988        -538.462
 -24645187.628 7 -18861397.310 8  20253515.073    20253534.440    20253532.281
       546.127         425.558
  -1373543.191 5  -2459817.661 5  24366472.282    24366488.831    24366489.101
     -3631.743       -2830.013
         0.000 1         0.000 1  20467415.313           0.000           0.000
         0.000           0.000
 92  6 13 15 10 15.0000000  0  5 16 28 18  2 19                      0.000017100
  -5891313.445 6  -2838596.194 6  23855470.851    23855490.697    23855492.017
     -2542.828       -1981.395
 -25207932.056 6  -5218924.708 6  23578756.537    23578784.417    23578784.507
      -689.320        -537.142
 -24643546.953 7 -18860118.871 8  20253826.138    20253846.734    20253844.785
       547.687         426.777
  -1384438.188 5  -2468307.266 5  24364404.584    24364416.006    24364415.676
     -3631.410       -2829.733
         0.000 1         0.000 1  20467111.504           0.000           0.000
         0.000           0.000
 92  6 13 15 10 18.0000000  0  5 16 28 18  2 19                      0.000016760
  -5898939.631 6  -2844538.671 6  23854020.096    23854039.282    23854040.751
     -2541.281       -1980.275
 -25209997.370 6  -5220534.048 6  23578371.003    23578391.479    23578391.689
      -687.574        -535.819
 -24641901.395 7 -18858836.613 8  20254141.250    20254159.687    20254157.678
       549.323         428.078
  -1395331.855 5  -2476795.839 5  24362329.720    24362342.881    24362342.251
     -3630.903       -2829.333
         0.000 1         0.000 1  20466817.137           0.000           0.000
         0.000           0.000
 92  6 13 15 10 21.0000000  0  5 16 28 18  2 19                      0.000016410
  -5906561.465 6  -2850477.745 6  23852567.571    23852588.646    23852590.265
     -2539.823       -1979.160
 -25212057.598 6  -5222139.422 6  23577980.883    23577999.800    23578000.160
      -685.894        -534.437
 -24640251.098 7 -18857550.671 8  20254452.854    20254473.630    20254472.041
       550.901         429.283
  -1406224.338 5  -2485283.473 5  24360253.148    24360269.966    24360270.236
     -3630.607       -2829.093
         0.000 1         0.000 1  20466519.713           0.000           0.000
         0.000           0.000
 92  6 13 15 10 24.0000000  0  5 16 28 18  2 19                      0.000016070
  -5914178.851 6  -2856413.381 6  23851120.623    23851138.700    23851140.649
     -2538.342       -1977.960
 -25214112.728 6  -5223740.816 6  23577584.198    23577608.271    23577608.781
      -684.158        -533.131
 -24638596.118 7 -18856261.076 8  20254768.865    20254788.682    20254786.703
       552.434         430.479
  -1417115.583 5  -2493770.147 5  24358178.224    24358197.411    24358197.621
     -3630.297       -2828.778
         0.000 1         0.000 1  20466223.129           0.000           0.000
         0.000           0.000
 92  6 13 15 10 27.0000000  0  5 16 28 18  2 19                      0.000015720
  -5921791.883 5  -2862345.606 6  23849671.696    23849690.043    23849691.842
     -2536.877       -1976.809
 -25216162.615 6  -5225338.135 6  23577196.237    23577218.391    23577218.931
      -682.351        -531.615
 -24636936.400 7 -18854967.791 8  20255084.757    20255104.363    20255102.774
       554.076         431.763
  -1428005.595 5  -2502255.876 5  24356105.039    24356124.106    24356124.796
     -3629.752       -2828.397
         0.000 1         0.000 1  20465929.062           0.000           0.000
         0.000           0.000
 92  6 13 15 10 30.0000000  0  5 16 28 18  2 19                      0.000015380
  -5929400.405 5  -2868274.333 6  23848221.900    23848241.806    23848244.174
     -2535.433       -1975.644
 -25218207.091 6  -5226931.224 6  23576804.738    23576829.021    23576829.531
      -680.554        -530.354
 -24635271.755 7 -18853670.670 8  20255400.828    20255421.064    20255419.325
       555.744         433.045
  -1438894.185 5  -2510740.492 5  24354029.366    24354052.510    24354053.080
     -3629.301       -2827.883
         0.000 1         0.000 1  20465632.957           0.000           0.000
         0.000           0.000
 92  6 13 15 10 33.0000000  0  5 16 28 18  2 19                      0.000015030
  -5937004.615 5  -2874199.680 6  23846774.052    23846795.067    23846796.956
     -2534.033       -1974.560
 -25220246.272 6  -5228520.201 6  23576418.575    23576440.760    23576441.629
      -678.829        -528.921
 -24633602.331 7 -18852369.819 8  20255718.578    20255738.754    20255737.105
       557.301         434.245
  -1449781.468 5  -2519224.096 5  24351960.588    24351980.645    24351981.094
     -3628.906       -2827.730
         0.000 1         0.000 1  20465337.871           0.000           0.000
         0.000           0.000
 92  6 13 15 10 36.0000000  0  5 16 28 18  2 19                      0.000014680
  -5944604.685 5  -2880121.820 6  23845332.410    23845348.839    23845350.937
     -2532.616       -1973.502
 -25222280.365 6  -5230105.213 6  23576030.734    23576053.937    23576055.137
      -677.092        -527.621
 -24631928.341 7 -18851065.418 8  20256036.748    20256057.253    20256055.814
       558.791         435.398
  -1460667.652 5  -2527706.832 5  24349884.466    24349908.689    24349909.648
     -3628.440       -2827.471
         0.000 1         0.000 1  20465047.193           0.000           0.000
         0.000           0.000
 92  6 13 15 10 39.0000000  0  5 16 28 18  2 19                      0.000014340
  -5952200.547 5  -2886040.650 6  23843881.864    23843903.179    23843905.128
     -2531.219       -1972.463
 -25224309.258 6  -5231686.162 6  23575639.894    23575667.625    23575669.304
      -675.413        -526.338
 -24630249.715 7 -18849757.389 8  20256355.817    20256376.772    20256374.824
       560.284         436.579
  -1471552.606 5  -2536188.599 5  24347817.966    24347836.703    24347837.873
     -3628.140       -2827.098
         0.000 1         0.000 1  20464746.591           0.000           0.000
         0.000           0.000
 92  6 13 15 10 42.0000000  0  5 16 28 18  2 19                      0.000013990
  -5959792.191 5  -2891956.226 6  23842440.222    23842459.109    23842460.728
     -2529.833       -1971.266
 -25226332.865 6  -5233263.004 6  23575256.759    23575282.362    23575283.921
      -673.644        -524.880
 -24628566.328 7 -18848445.670 8  20256676.325    20256697.010    20256695.242
       561.967         437.872
  -1482436.211 5  -2544669.331 5  24345742.083    24345766.816    24345767.416
     -3627.603       -2826.760
         0.000 1         0.000 1  20464461.608           0.000           0.000
         0.000           0.000
 92  6 13 15 10 45.0000000  0  5 16 28 18  2 19                      0.000013640
  -5967379.666 5  -2897868.541 6  23840995.882    23841015.398    23841016.867
     -2528.440       -1970.324
 -25228351.253 6  -5234835.777 6  23574871.436    23574898.627    23574899.916
      -671.978        -523.665
 -24626878.210 7 -18847130.253 8  20256998.452    20257018.088    20257016.559
       563.426         439.029
  -1493318.499 5  -2553149.027 5  24343679.571    24343695.370    24343695.760
     -3627.301       -2826.493
         0.000 1         0.000 1  20464159.477           0.000           0.000
         0.000           0.000
 92  6 13 15 10 48.0000000  0  5 16 28 18  2 19                      0.000013300
  -5974963.128 5  -2903777.731 6  23839554.060    23839571.388    23839573.187
     -2527.161       -1969.203
 -25230364.660 6  -5236404.672 6  23574495.316    23574515.373    23574517.111
      -670.321        -522.303
 -24625185.513 7 -18845811.267 8  20257318.960    20257340.485    20257338.656
       564.985         440.250
  -1504199.667 5  -2561627.856 5  24341600.451    24341624.764    24341625.543
     -3626.952       -2826.139
         0.000 1         0.000 1  20463872.036           0.000           0.000
         0.000           0.000
 92  6 13 15 10 51.0000000  0  5 16 28 18  2 19                      0.000012950
  -5982542.293 5  -2909683.570 6  23838105.193    23838129.716    23838131.095
     -2525.745       -1968.046
 -25232372.775 6  -5237969.429 6  23574112.661    23574133.377    23574134.756
      -668.504        -520.898
 -24623487.984 7 -18844488.523 8  20257643.096    20257663.182    20257661.593
       566.586         441.536
  -1515079.386 5  -2570105.555 5  24339524.088    24339554.067    24339554.637
     -3626.294       -2825.814
         0.000 1         0.000 1  20463579.798           0.000           0.000
         0.000           0.000
 92  6 13 15 10 54.0000000  0  5 16 28 18  2 19                      0.000012600
  -5990117.077 5  -2915585.993 6  23836668.947    23836687.834    23836690.023
     -2524.258       -1966.980
 -25234375.495 6  -5239529.991 6  23573729.527    23573752.041    23573753.420
      -666.723        -519.547
 -24621785.628 8 -18843162.016 8  20257966.362    20257987.407    20257985.728
       568.206         442.733
  -1525957.579 5  -2578582.075 5  24337454.051    24337483.851    24337485.230
     -3625.865       -2825.391
         0.000 1         0.000 1  20463293.856           0.000           0.000
         0.000           0.000
 92  6 13 15 10 57.0000000  0  5 16 28 18  2 19                      0.000012260
  -5997687.464 5  -2921485.002 6  23835222.809    23835247.931    23835248.711
     -2522.675       -1965.793
 -25236372.854 6  -5241086.375 6  23573352.807    23573371.874    23573373.343
      -664.880        -518.124
 -24620078.592 8 -18841831.857 8  20258290.677    20258312.322    20258310.374
       569.739         443.968
  -1536834.400 5  -2587057.515 5  24335394.027    24335414.383    24335415.283
     -3625.275       -2824.906
         0.000 1         0.000 1  20462991.846           0.000           0.000
         0.000           0.000
 92  6 13 15 11  0.0000000  0  5 16 28 18  2 19                      0.000011910
  -6005253.618 5  -2927380.689 6  23833787.642    23833807.279    23833809.347
     -2521.352       -1964.688
 -25238364.964 6  -5242638.676 6  23572973.060    23572993.206    23572994.286
      -663.105        -516.755
 -24618367.102 8 -18840498.231 8  20258618.920    20258637.747    20258636.008
       571.278         445.131
  -1547709.965 5  -2595531.971 5  24333318.024    24333344.466    24333345.306
     -3624.825       -2824.574
         0.000 1         0.000 1  20462704.764           0.000           0.000
         0.000           0.000
 92  6 13 15 11  3.0000000  0  5 16 28 18  2 19                      0.000011570
  -6012815.246 5  -2933272.871 6  23832353.345    23832368.754    23832370.133
     -2519.740       -1963.471
 -25240351.650 6  -5244186.746 6  23572594.722    23572614.778    23572616.427
      -661.368        -515.300
 -24616650.888 8 -18839160.922 8  20258940.537    20258964.731    20258962.692
       572.886         446.386
  -1558584.025 5  -2604005.265 5  24331258.450    24331274.489    24331276.438
     -3624.507       -2824.204
         0.000 1         0.000 1  20462418.223           0.000           0.000
         0.000           0.000
 92  6 13 15 11  6.0000000  0  5 16 28 18  2 19                      0.000011220
  -6020372.603 5  -2939161.715 6  23830910.744    23830931.160    23830931.699
     -2518.368       -1962.440
 -25242333.078 6  -5245730.712 6  23572218.333    23572237.939    23572239.168
      -659.567        -513.939
 -24614930.122 8 -18837820.071 8  20259269.140    20259292.164    20259290.125
       574.355         447.545
  -1569456.729 5  -2612477.495 5  24329182.447    24329206.431    24329207.510
     -3623.937       -2823.930
         0.000 1         0.000 1  20462129.313           0.000           0.000
         0.000           0.000
 92  6 13 15 11  9.0000000  0  5 16 28 18  2 19                      0.000010870
  -6027925.686 5  -2945047.230 6  23829474.378    23829493.115    23829494.764
     -2516.994       -1961.307
 -25244309.244 6  -5247270.586 6  23571839.545    23571862.329    23571863.079
      -657.936        -512.631
 -24613204.802 8 -18836475.667 8  20259601.760    20259620.317    20259618.398
       575.818         448.676
  -1580328.045 5  -2620948.653 5  24327112.890    24327136.844    24327138.792
     -3623.589       -2823.602
         0.000 1         0.000 1  20461838.754           0.000           0.000
         0.000           0.000
 92  6 13 15 11 12.0000000  0  5 16 28 18  2 19                      0.000010530
  -6035474.467 5  -2950929.396 6  23828035.194    23828057.049    23828057.829
     -2515.506       -1960.183
 -25246280.214 6  -5248806.402 6  23571471.070    23571486.899    23571488.398
      -656.138        -511.225
 -24611475.012 8 -18835127.783 8  20259928.084    20259949.968    20259947.510
       577.347         449.884
  -1591198.079 5  -2629418.810 5  24325043.513    24325068.186    24325069.925
     -3623.205       -2823.261
         0.000 1         0.000 1  20461555.330           0.000           0.000
         0.000           0.000
 92  6 13 15 11 15.0000000  0  5 16 28 18  2 19                      0.000010180
  -6043018.919 5  -2956808.178 6  23826601.257    23826621.253    23826622.333
     -2514.044       -1959.030
 -25248246.020 6  -5250338.206 6  23571092.432    23571113.148    23571114.047
      -654.379        -509.891
 -24609740.817 8 -18833776.461 8  20260260.014    20260279.950    20260277.762
       578.825         451.015
  -1602066.826 5  -2637887.954 5  24322973.956    24322999.978    24323002.226
     -3622.708       -2822.820
         0.000 1         0.000 1  20461262.942           0.000           0.000
         0.000           0.000
 92  6 13 15 11 18.0000000  0  5 16 28 18  2 19                      0.000009840
  -6050559.031 5  -2962683.578 6  23825163.992    23825186.537    23825187.766
     -2512.720       -1957.982
 -25250206.639 6  -5251865.957 6  23570721.859    23570740.236    23570740.686
      -652.714        -508.568
 -24608002.231 8 -18832421.725 8  20260588.107    20260610.711    20260608.403
       580.266         452.141
  -1612934.196 5  -2646356.027 5  24320905.717    24320932.009    24320933.748
     -3622.287       -2822.592
         0.000 1         0.000 1  20460977.960           0.000           0.000
         0.000           0.000
 92  6 13 15 11 21.0000000  0  5 16 28 18  2 19                      0.000009490
  -6058094.514 5  -2968555.387 6  23823729.455    23823752.479    23823753.229
     -2511.023       -1956.693
 -25252161.823 6  -5253389.476 6  23570349.876    23570368.104    23570368.583
      -650.783        -507.099
 -24606258.997 8 -18831063.363 8  20260922.225    20260942.521    20260939.943
       581.891         453.427
  -1623799.967 5  -2654822.868 5  24318842.935    24318865.300    24318866.079
     -3621.674       -2822.056
         0.000 1         0.000 1  20460689.320           0.000           0.000
         0.000           0.000
 92  6 13 15 11 24.0000000  0  5 16 28 18  2 19                      0.000009150
  -6065625.570 5  -2974423.741 6  23822299.115    23822319.621    23822320.071
     -2509.614       -1955.554
 -25254111.731 6  -5254908.889 6  23569976.545    23569997.320    23569997.800
      -649.124        -505.893
 -24604511.273 8 -18829701.503 8  20261252.956    20261274.931    20261272.653
       583.324         454.528
  -1634664.300 5  -2663288.585 5  24316779.644    24316797.691    24316798.381
     -3621.190       -2821.838
         0.000 1         0.000 1  20460406.255           0.000           0.000
         0.000           0.000
 92  6 13 15 11 27.0000000  0  5 16 28 18  2 19                      0.000008800
  -6073152.524 5  -2980288.890 6  23820862.750    23820886.943    23820888.022
     -2508.248       -1954.410
 -25256056.644 6  -5256424.409 6  23569605.102    23569627.287    23569627.586
      -647.420        -504.461
 -24602759.363 8 -18828336.382 8  20261585.126    20261608.540    20261605.962
       584.721         455.623
  -1645527.467 5  -2671753.384 5  24314717.461    24314729.813    24314731.042
     -3620.771       -2821.441
         0.000 1         0.000 1  20460129.547           0.000           0.000
         0.000           0.000
 92  6 13 15 11 30.0000000  0  5 16 28 18  2 19                      0.000008460
  -6080675.388 5  -2986150.845 6  23819438.286    23819455.974    23819456.393
     -2506.947       -1953.451
 -25257996.492 6  -5257935.977 6  23569236.747    23569257.882    23569258.272
      -645.781        -503.213
 -24601003.239 8 -18826967.977 8  20261919.635    20261942.719    20261940.381
       586.116         456.702
  -1656389.270 5  -2680217.129 5  24312648.324    24312663.104    24312664.123
     -3620.382       -2821.064
         0.000 1         0.000 1  20459841.806           0.000           0.000
         0.000           0.000
 92  6 13 15 11 33.0000000  0  5 16 28 18  2 19                      0.000008110
  -6088194.061 5  -2992009.558 6  23818002.310    23818025.514    23818025.574
     -2505.635       -1952.411
 -25259931.185 6  -5259443.537 6  23568870.311    23568889.857    23568889.977
      -644.070        -501.896
 -24599242.769 8 -18825596.185 8  20262254.023    20262277.827    20262275.339
       587.508         457.762
  -1667249.656 5  -2688679.759 5  24310575.259    24310597.264    24310597.773
     -3619.915       -2820.800
         0.000 1         0.000 1  20459553.826           0.000           0.000
         0.000           0.000
 92  6 13 15 11 36.0000000  0  5 16 28 18  2 19                      0.000007760
  -6095708.868 5  -2997865.235 6  23816570.471    23816595.114    23816595.624
     -2504.220       -1951.339
 -25261861.052 6  -5260947.327 6  23568502.435    23568522.551    23568522.731
      -642.431        -500.625
 -24597478.302 8 -18824221.276 8  20262591.620    20262613.654    20262610.986
       588.901         458.873
  -1678108.816 5  -2697141.437 5  24308506.721    24308530.375    24308530.734
     -3619.511       -2820.349
         0.000 1         0.000 1  20459271.781           0.000           0.000
         0.000           0.000
 92  6 13 15 11 39.0000000  0  5 16 28 18  2 19                      0.000007420
  -6103219.914 5  -3003717.995 5  23815143.729    23815165.824    23815165.344
     -2503.035       -1950.367
 -25263786.189 6  -5262447.434 6  23568133.181    23568156.235    23568156.865
      -640.848        -499.423
 -24595709.888 8 -18822843.295 8  20262929.336    20262950.171    20262947.503
       590.142         459.875
  -1688966.812 5  -2705602.217 5  24306439.502    24306464.954    24306464.954
     -3619.055       -2820.163
         0.000 1         0.000 1  20458983.590           0.000           0.000
         0.000           0.000
 92  6 13 15 11 42.0000000  0  5 16 28 18  2 19                      0.000007070
  -6110726.940 5  -3009567.614 5  23813715.308    23813737.103    23813737.523
     -2501.609       -1949.349
 -25265706.286 6  -5263943.607 6  23567770.942    23567791.088    23567791.208
      -639.136        -498.083
 -24593937.212 8 -18821461.987 8  20263265.163    20263287.378    20263284.980
       591.607         461.007
  -1699823.324 5  -2714061.837 5  24304381.966    24304398.395    24304398.905
     -3618.536       -2819.634
         0.000 1         0.000 1  20458707.691           0.000           0.000
         0.000           0.000
 92  6 13 15 11 45.0000000  0  5 16 28 18  2 19                      0.000006720
  -6118229.762 5  -3015413.961 5  23812289.765    23812309.941    23812309.281
     -2500.304       -1948.318
 -25267621.174 6  -5265435.731 6  23567402.467    23567426.840    23567427.350
      -637.417        -496.750
 -24592160.159 8 -18820077.271 8  20263606.837    20263625.634    20263623.116
       593.013         462.100
  -1710678.218 5  -2722520.183 5  24302313.608    24302332.975    24302333.185
     -3618.047       -2819.284
         0.000 1         0.000 1  20458419.471           0.000           0.000
         0.000           0.000
 92  6 13 15 11 48.0000000  0  5 16 28 18  2 19                      0.000006380
  -6125728.552 5  -3021257.173 5  23810861.703    23810883.019    23810882.479
     -2498.979       -1947.171
 -25269530.965 6  -5266923.879 6  23567042.926    23567063.402    23567063.731
      -635.788        -495.393
 -24590378.876 8 -18818689.266 8  20263943.564    20263964.789    20263962.121
       594.407         463.193
  -1721531.660 5  -2730977.401 5  24300247.109    24300268.064    24300268.874
     -3617.561       -2818.883
         0.000 1         0.000 1  20458141.863           0.000           0.000
         0.000           0.000
 92  6 13 15 11 51.0000000  0  5 16 28 18  2 19                      0.000006030
  -6133223.344 5  -3027097.258 5  23809431.603    23809456.606    23809456.426
     -2497.549       -1946.213
 -25271435.599 6  -5268408.012 6  23566678.348    23566700.563    23566701.102
      -633.944        -494.006
 -24588593.402 8 -18817297.985 8  20264284.997    20264304.454    20264301.966
       595.969         464.353
  -1732383.642 5  -2739433.507 5  24298181.389    24298202.644    24298203.124
     -3617.052       -2818.492
         0.000 1         0.000 1  20457860.298           0.000           0.000
         0.000           0.000
 92  6 13 15 11 54.0000000  0  5 16 28 18  2 19                      0.000005690
  -6140714.035 5  -3032934.164 5  23808013.945    23808031.663    23808030.553
     -2496.240       -1945.073
 -25273334.959 6  -5269888.040 6  23566317.998    23566339.373    23566339.223
      -632.269        -492.583
 -24586803.658 8 -18815903.378 8  20264623.973    20264644.868    20264642.440
       597.310         465.442
  -1743234.147 5  -2747888.429 5  24296118.277    24296138.303    24296138.214
     -3616.567       -2818.118
         0.000 1         0.000 1  20457582.480           0.000           0.000
         0.000           0.000
 92  6 13 15 11 57.0000000  0  5 16 28 18  2 19                      0.000005340
  -6148200.934 5  -3038768.092 5  23806586.663    23806606.809    23806606.150
     -2495.019       -1944.133
 -25275229.356 6  -5271364.186 6  23565956.298    23565978.902    23565979.742
      -630.637        -491.422
 -24585009.973 8 -18814505.706 8  20264963.128    20264986.092    20264983.754
       598.556         466.390
  -1754083.543 5  -2756342.515 5  24294055.915    24294073.723    24294073.453
     -3616.294       -2817.875
         0.000 1         0.000 1  20457303.374           0.000           0.000
         0.000           0.000
 92  6 13 15 12  0.0000000  0  5 16 28 18  2 19                      0.000004990
  -6155683.844 5  -3044598.936 5  23805161.420    23805182.825    23805182.165
     -2493.538       -1942.990
 -25277118.569 6  -5272836.289 6  23565597.986    23565619.721    23565620.201
      -628.851        -490.048
 -24583212.170 8 -18813104.821 8  20265306.600    20265328.215    20265325.937
       599.959         467.490
  -1764931.745 5  -2764795.655 5  24291987.437    24292010.401    24292009.832
     -3615.878       -2817.592
         0.000 1         0.000 1  20457026.755           0.000           0.000
         0.000           0.000
 92  6 13 15 12  3.0000000  0  5 16 28 18  2 19                      0.000004650
  -6163162.726 5  -3050426.615 5  23803738.485    23803759.770    23803758.601
     -2492.202       -1941.913
 -25279002.573 6  -5274304.351 6  23565243.272    23565260.660    23565261.559
      -627.049        -488.582
 -24581410.267 8 -18811700.741 8  20265649.593    20265671.208    20265668.809
       601.387         468.599
  -1775778.775 5  -2773247.885 5  24289924.235    24289945.521    24289944.951
     -3615.384       -2817.202
         0.000 1         0.000 1  20456743.751           0.000           0.000
         0.000           0.000
 92  6 13 15 12  6.0000000  0  5 16 28 18  2 19                      0.000004300
  -6170637.542 5  -3056251.147 5  23802317.648    23802337.435    23802336.985
     -2490.839       -1940.927
 -25280881.321 6  -5275768.316 6  23564883.311    23564903.847    23564903.157
      -625.374        -487.323
 -24579604.304 8 -18810293.499 8  20265993.125    20266014.710    20266012.701
       602.663         469.624
  -1786624.573 5  -2781699.136 5  24287861.423    24287881.060    24287881.120
     -3615.035       -2816.922
         0.000 1         0.000 1  20456466.383           0.000           0.000
         0.000           0.000
 92  6 13 15 12  9.0000000  0  5 16 28 18  2 19                      0.000003950
  -6178108.299 5  -3062072.533 5  23800891.326    23800915.369    23800914.830
     -2489.594       -1939.952
 -25282754.834 6  -5277228.200 6  23564525.598    23564546.914    23564546.974
      -623.628        -485.877
 -24577794.323 8 -18808883.126 8  20266339.565    20266359.321    20266357.253
       604.002         470.660
  -1797469.132 5  -2790149.447 5  24285794.984    24285817.828    24285817.528
     -3614.664       -2816.539
         0.000 1         0.000 1  20456185.597           0.000           0.000
         0.000           0.000
 92  6 13 15 12 12.0000000  0  5 16 28 18  2 19                      0.000003610
  -6185574.913 5  -3067890.658 5  23799475.166    23799494.653    23799494.203
     -2488.131       -1938.751
 -25284623.046 6  -5278683.956 6  23564172.623    23564191.809    23564191.540
      -621.829        -484.543
 -24575980.190 8 -18807469.519 8  20266683.997    20266704.472    20266702.524
       605.433         471.765
  -1808312.340 5  -2798598.700 5  24283736.039    24283754.327    24283753.907
     -3614.291       -2816.137
         0.000 1         0.000 1  20455914.015           0.000           0.000
         0.000           0.000
 92  6 13 15 12 15.0000000  0  5 16 28 18  2 19                      0.000003260
  -6193037.309 6  -3073705.490 5  23798052.531    23798074.626    23798073.966
     -2486.782       -1937.720
 -25286485.924 6  -5280135.552 6  23563818.568    23563836.915    23563837.125
      -620.085        -483.128
 -24574161.805 8 -18806052.595 8  20267029.088    20267050.433    20267048.514
       606.843         472.864
  -1819154.140 5  -2807046.851 5  24281676.705    24281691.095    24281691.185
     -3613.659       -2815.820
         0.000 1         0.000 1  20455634.159           0.000           0.000
         0.000           0.000
 92  6 13 15 12 18.0000000  0  5 16 28 18  2 19                      0.000002910
  -6200495.506 5  -3079517.076 5  23796635.772    23796655.528    23796654.539
     -2485.401       -1936.695
 -25288343.496 6  -5281583.009 6  23563464.393    23563483.310    23563483.580
      -618.285        -481.784
 -24572339.247 8 -18804632.420 8  20267375.078    20267397.143    20267395.254
       608.206         473.931
  -1829994.708 5  -2815494.046 5  24279603.970    24279628.373    24279627.893
     -3613.321       -2815.574
         0.000 1         0.000 1  20455360.629           0.000           0.000
         0.000           0.000
 92  6 13 15 12 21.0000000  0  5 16 28 18  2 19                      0.000002570
  -6207949.345 5  -3085325.262 5  23795215.085    23795236.580    23795235.741
     -2483.918       -1935.482
 -25290195.613 6  -5283026.223 6  23563110.518    23563130.634    23563130.964
      -616.453        -480.381
 -24570512.457 8 -18803208.949 8  20267722.957    20267744.692    20267742.924
       609.655         475.047
  -1840833.992 5  -2823940.234 5  24277538.970    24277565.981    24277565.711
     -3612.827       -2815.282
         0.000 1         0.000 1  20455083.410           0.000           0.000
         0.000           0.000
 92  6 13 15 12 24.0000000  0  5 16 28 18  2 19                      0.000002220
  -6215398.769 5  -3091130.006 5  23793795.928    23793819.192    23793818.712
     -2482.421       -1934.377
 -25292042.214 6  -5284465.131 6  23562758.682    23562779.637    23562779.397
      -614.648        -478.933
 -24568681.384 7 -18801782.135 8  20268071.946    20268093.081    20268091.492
       611.065         476.137
  -1851671.919 5  -2832385.365 5  24275483.353    24275503.169    24275503.469
     -3612.491       -2814.839
         0.000 1         0.000 1  20454812.908           0.000           0.000
         0.000           0.000
 92  6 13 15 12 27.0000000  0  5 16 28 18  2 19                      0.000001870
  -6222844.067 5  -3096931.529 5  23792382.227    23792402.403    23792402.013
     -2481.056       -1933.329
 -25293883.455 6  -5285899.871 6  23562412.631    23562429.240    23562428.940
      -612.769        -477.454
 -24566846.260 8 -18800352.174 8  20268421.804    20268442.459    20268440.361
       612.419         477.211
  -1862508.744 5  -2840829.647 5  24273423.868    24273441.556    24273440.357
     -3612.082       -2814.638
         0.000 1         0.000 1  20454535.510           0.000           0.000
         0.000           0.000
 92  6 13 15 12 30.0000000  0  5 16 28 18  2 19                      0.000001530
  -6230284.990 5  -3102729.648 5  23790970.534    23790986.093    23790986.243
     -2479.550       -1932.098
 -25295719.023 6  -5287330.180 6  23562058.756    23562079.472    23562079.981
      -610.906        -476.061
 -24565006.938 8 -18798918.940 8  20268772.741    20268792.347    20268790.428
       613.866         478.331
  -1873344.228 5  -2849272.870 5  24271354.971    24271380.063    24271378.804
     -3611.626       -2814.129
         0.000 1         0.000 1  20454262.339           0.000           0.000
         0.000           0.000
 92  6 13 15 12 33.0000000  0  5 16 28 18  2 19                      0.000001180
  -6237721.434 5  -3108524.277 5  23789548.468    23789571.073    23789571.163
     -2478.193       -1931.083
 -25297548.797 6  -5288755.982 6  23561713.545    23561731.623    23561732.252
      -609.041        -474.487
 -24563163.295 8 -18797482.334 8  20269123.588    20269143.224    20269141.216
       615.200         479.391
  -1884178.216 5  -2857714.935 5  24269293.897    24269318.690    24269316.712
     -3611.224       -2813.886
         0.000 1         0.000 1  20453988.179           0.000           0.000
         0.000           0.000
 92  6 13 15 12 36.0000000  0  5 16 28 18  2 19                      0.000000840
  -6245153.945 5  -3114315.839 5  23788137.615    23788156.742    23788156.172
     -2476.845       -1930.025
 -25299373.203 6  -5290177.597 6  23561365.726    23561384.373    23561384.823
      -607.220        -473.203
 -24561315.747 8 -18796042.690 8  20269475.964    20269494.821    20269492.782
       616.542         480.403
  -1895011.141 5  -2866156.178 5  24267235.343    24267256.838    24267255.609
     -3610.838       -2813.547
         0.000 1         0.000 1  20453715.278           0.000           0.000
         0.000           0.000
 92  6 13 15 12 39.0000000  0  5 16 28 18  2 19                      0.000000490
  -6252582.319 5  -3120104.183 5  23786724.573    23786742.711    23786743.280
     -2475.392       -1928.901
 -25301192.025 6  -5291594.863 6  23561017.277    23561038.143    23561038.502
      -605.374        -471.736
 -24559464.085 8 -18794599.838 8  20269829.239    20269846.987    20269844.948
       617.932         481.496
  -1905842.805 5  -2874596.433 5  24265172.920    24265195.495    24265193.906
     -3610.394       -2813.189
         0.000 1         0.000 1  20453441.957           0.000           0.000
         0.000           0.000
 92  6 13 15 12 42.0000000  0  5 16 28 18  2 19                      0.000000140
  -6260006.640 5  -3125889.367 5  23785311.262    23785330.298    23785330.268
     -2474.056       -1927.862
 -25303005.284 6  -5293007.794 6  23560673.025    23560692.872    23560693.951
      -603.443        -470.229
 -24557608.287 8 -18793153.763 8  20270180.296    20270200.412    20270197.954
       619.337         482.581
  -1916673.195 5  -2883035.691 5  24263116.764    24263134.002    24263133.552
     -3609.875       -2812.870
         0.000 1         0.000 1  20453174.092           0.000           0.000
         0.000           0.000
